PORTS® Data Listing: 8452660 Newport, RI

CO-OPS RAW PORTS DATA

************************      PRELIMINARY DATA      ************************** 

     THIS RAW DATA HAS NOT BEEN SUBJECT TO THE NATIONAL OCEAN SERVICE'S        
     QUALITY CONTROL OR QUALITY ASSURANCE PROCEDURES AND DOES NOT MEET         
     THE CRITERIA AND STANDARDS OF OFFICIAL NATIONAL OCEAN SERVICE             
     DATA.  IT IS RELEASED FOR LIMITED PUBLIC USE AS PRELIMINARY DATA TO       
     BE USED ONLY WITH APPROPRIATE CAUTION.                                    

************************      PRELIMINARY DATA      ************************** 


       CD   -   Calendar date
       T    -   Time
       TZ   -   Timezone
       PW   -   Predicted water level (feet above MLLW)
       OW   -   Observed water level (feet above MLLW)
       WS   -   Wind speed (knots)
       WD   -   Wind direction (degrees true)
       WG   -   Wind gust (knots)
       AT   -   Air temperature (degrees farenheit)
       WT   -   Water temperature (degrees farenheit)
       AP   -   Air pressure (millibars)
       SA   -   Salinty (PSU - Practical Salinity Units)
       SG   -   Specific gravity
       RH   -   Relative humidity
       AG   -   Air gap (feet)
       VI   -   Visibility (nautical miles)

       ** NOTE **
       A variable that has its data fields filled with "9"s, indicates that
       data was not collected for that sample period.
       **********


STATION NAME: Newport (8452660)
****************************************************************************************************
    CD       T    TZ    PW     OW    WS   WD   WG    AT    WT    AP    SA    SG     RH    AG   VI
****************************************************************************************************
2019/10/15 15:00 EDT    0.14   0.67    4   39    5  59.4  57.2 1019.2 32.8  1.025 -99.9 -99.99 -9.99
2019/10/15 15:06 EDT    0.14   0.74    4   38    7  59.4  57.2 1019.1 32.8  1.025 -99.9 -99.99 -9.99
2019/10/15 15:12 EDT    0.14   0.70    2   47    7  59.2  57.0 1019.0 32.9  1.025 -99.9 -99.99 -9.99
2019/10/15 15:18 EDT    0.14   0.72    3   26    5  59.9  57.0 1019.1 32.9  1.026 -99.9 -99.99 -9.99
2019/10/15 15:24 EDT    0.15   0.74    4   33    6  59.7  57.0 1019.1 32.8  1.025 -99.9 -99.99 -9.99
2019/10/15 15:30 EDT    0.16   0.71    5   17    7  59.9  57.2 1019.0 32.8  1.025 -99.9 -99.99 -9.99
2019/10/15 15:36 EDT    0.17   0.77    2   18    6  60.1  57.2 1018.9 32.8  1.025 -99.9 -99.99 -9.99
2019/10/15 15:42 EDT    0.19   0.75    4    3    6  60.3  57.2 1018.9 32.6  1.025 -99.9 -99.99 -9.99
2019/10/15 15:48 EDT    0.21   0.82    2   48    7  60.1  57.2 1018.8 32.8  1.025 -99.9 -99.99 -9.99
2019/10/15 15:54 EDT    0.23   0.87    2   38    5  60.1  57.2 1018.8 32.8  1.025 -99.9 -99.99 -9.99
2019/10/15 16:00 EDT    0.25   0.83    1   35    3  60.8  57.2 1018.8 32.8  1.025 -99.9 -99.99 -9.99
2019/10/15 16:06 EDT    0.28   0.89    4  267    4  60.8  57.2 1018.8 32.8  1.025 -99.9 -99.99 -9.99
2019/10/15 16:12 EDT    0.31   0.89    4  243    4  60.6  57.2 1018.8 32.8  1.025 -99.9 -99.99 -9.99
2019/10/15 16:18 EDT    0.34   0.91    5  227    6  60.3  57.2 1018.7 32.8  1.025 -99.9 -99.99 -9.99
2019/10/15 16:24 EDT    0.38   0.99    7  214    8  59.9  57.2 1018.7 32.8  1.025 -99.9 -99.99 -9.99
2019/10/15 16:30 EDT    0.42   1.09    9  223    9  59.2  57.2 1018.7 32.8  1.025 -99.9 -99.99 -9.99
2019/10/15 16:36 EDT    0.45   1.12    8  217   10  59.2  57.2 1018.6 32.8  1.025 -99.9 -99.99 -9.99
2019/10/15 16:42 EDT    0.50   1.25    9  221   10  59.2  57.0 1018.6 32.8  1.025 -99.9 -99.99 -9.99
2019/10/15 16:48 EDT    0.54   1.25    8  224   11  59.0  57.0 1018.6 32.8  1.025 -99.9 -99.99 -9.99
2019/10/15 16:54 EDT    0.59   1.31    9  227   10  58.8  57.0 1018.5 32.8  1.025 -99.9 -99.99 -9.99
2019/10/15 17:00 EDT    0.64   1.40    9  229   10  58.6  57.0 1018.5 32.8  1.025 -99.9 -99.99 -9.99
2019/10/15 17:06 EDT    0.69   1.42   10  221   11  58.6  57.2 1018.5 32.8  1.025 -99.9 -99.99 -9.99
2019/10/15 17:12 EDT    0.74   1.46    8  222   11  58.8  57.2 1018.5 32.8  1.025 -99.9 -99.99 -9.99
2019/10/15 17:18 EDT    0.80   1.51    9  223   11  58.5  57.2 1018.6 32.8  1.025 -99.9 -99.99 -9.99
2019/10/15 17:24 EDT    0.86   1.58    9  218   11  58.5  57.2 1018.6 32.8  1.025 -99.9 -99.99 -9.99
2019/10/15 17:30 EDT    0.92   1.70   10  229   11  58.1  57.2 1018.6 32.8  1.025 -99.9 -99.99 -9.99
2019/10/15 17:36 EDT    0.98   1.74   10  226   12  58.3  57.2 1018.8 32.8  1.025 -99.9 -99.99 -9.99
2019/10/15 17:42 EDT    1.05   1.76    9  229   11  58.1  57.0 1018.8 32.8  1.025 -99.9 -99.99 -9.99
2019/10/15 17:48 EDT    1.12   1.86    9  221   11  58.1  57.0 1018.9 32.8  1.025 -99.9 -99.99 -9.99
2019/10/15 17:54 EDT    1.19   1.95   10  219   13  57.9  57.0 1018.9 32.8  1.025 -99.9 -99.99 -9.99
2019/10/15 18:00 EDT    1.26   2.02   10  222   12  57.9  57.0 1018.8 32.8  1.025 -99.9 -99.99 -9.99
2019/10/15 18:06 EDT    1.33   2.14    9  214   11  57.7  57.0 1018.8 32.8  1.025 -99.9 -99.99 -9.99
2019/10/15 18:12 EDT    1.40   2.13    8  208   10  57.6  57.0 1018.9 32.8  1.025 -99.9 -99.99 -9.99
2019/10/15 18:18 EDT    1.48   2.17    8  205   11  57.6  57.0 1018.8 32.8  1.025 -99.9 -99.99 -9.99
2019/10/15 18:24 EDT    1.56   2.37    8  201   10  57.4  57.0 1018.9 32.9  1.025 -99.9 -99.99 -9.99
2019/10/15 18:30 EDT    1.64   2.37    8  200   10  57.4  57.0 1018.8 32.8  1.025 -99.9 -99.99 -9.99
2019/10/15 18:36 EDT    1.72   2.41    8  192   10  57.2  57.0 1018.8 32.8  1.025 -99.9 -99.99 -9.99
2019/10/15 18:42 EDT    1.80   2.54    7  189    9  57.2  57.0 1018.9 32.8  1.025 -99.9 -99.99 -9.99
2019/10/15 18:48 EDT    1.88   2.56    6  192    9  57.2  57.0 1019.0 32.8  1.025 -99.9 -99.99 -9.99
2019/10/15 18:54 EDT    1.97   2.65    6  189    8  57.0  57.0 1019.0 32.8  1.025 -99.9 -99.99 -9.99
2019/10/15 19:00 EDT    2.05   2.80    6  187    8  56.8  57.0 1019.0 32.9  1.025 -99.9 -99.99 -9.99
2019/10/15 19:06 EDT    2.13   2.81    5  181    7  56.8  57.0 1019.0 32.9  1.025 -99.9 -99.99 -9.99
2019/10/15 19:12 EDT    2.21   2.92    4  180    6  56.7  57.0 1019.0 32.8  1.025 -99.9 -99.99 -9.99
2019/10/15 19:18 EDT    2.30   3.01    5  179    6  56.8  57.0 1019.0 32.9  1.025 -99.9 -99.99 -9.99
2019/10/15 19:24 EDT    2.38   3.01    4  180    6  56.8  57.0 1019.1 32.9  1.026 -99.9 -99.99 -9.99
2019/10/15 19:30 EDT    2.46   3.11    4  189    5  57.0  57.0 1019.1 32.9  1.025 -99.9 -99.99 -9.99
2019/10/15 19:36 EDT    2.54   3.22    3  170    7  57.0  57.0 1019.1 32.9  1.025 -99.9 -99.99 -9.99
2019/10/15 19:42 EDT    2.62   3.26    4  199    5  56.5  57.0 1019.2 32.9  1.025 -99.9 -99.99 -9.99
2019/10/15 19:48 EDT    2.70   3.25    6  243    8  57.6  57.0 1019.2 32.9  1.025 -99.9 -99.99 -9.99
2019/10/15 19:54 EDT    2.77   3.37    6  241    7  57.6  57.0 1019.3 32.9  1.025 -99.9 -99.99 -9.99
2019/10/15 20:00 EDT    2.85   3.42    6  246    7  57.7  57.0 1019.2 32.9  1.025 -99.9 -99.99 -9.99
2019/10/15 20:06 EDT    2.92   3.44    6  238    7  57.7  56.8 1019.2 32.9  1.026 -99.9 -99.99 -9.99
2019/10/15 20:12 EDT    2.99   3.56    5  236    7  57.6  56.8 1019.3 33.0  1.026 -99.9 -99.99 -9.99
2019/10/15 20:18 EDT    3.05   3.56    6  242    7  57.4  56.8 1019.3 33.0  1.026 -99.9 -99.99 -9.99
2019/10/15 20:24 EDT    3.11   3.64    6  238    7  57.0  56.8 1019.3 33.0  1.026 -99.9 -99.99 -9.99
2019/10/15 20:30 EDT    3.17   3.72    5  244    7  56.8  56.8 1019.4 32.9  1.026 -99.9 -99.99 -9.99
2019/10/15 20:36 EDT    3.22   3.65    5  252    7  56.8  56.8 1019.5 33.0  1.026 -99.9 -99.99 -9.99
2019/10/15 20:42 EDT    3.27   3.75    4  234    7  56.8  56.8 1019.5 32.9  1.026 -99.9 -99.99 -9.99
2019/10/15 20:48 EDT    3.32   3.79    5  235    6  56.5  56.8 1019.6 32.9  1.026 -99.9 -99.99 -9.99
2019/10/15 20:54 EDT    3.36   3.78    7  245    7  56.7  56.8 1019.6 32.9  1.026 -99.9 -99.99 -9.99
2019/10/15 21:00 EDT    3.40   3.88    7  247    9  56.7  56.8 1019.7 32.8  1.025 -99.9 -99.99 -9.99
2019/10/15 21:06 EDT    3.43   3.90    6  251    9  56.7  56.7 1019.7 33.0  1.026 -99.9 -99.99 -9.99
2019/10/15 21:12 EDT    3.45   3.87    7  249    8  56.8  56.7 1019.7 33.0  1.026 -99.9 -99.99 -9.99
2019/10/15 21:18 EDT    3.47   3.95    7  249    8  56.8  56.7 1019.8 32.9  1.026 -99.9 -99.99 -9.99
2019/10/15 21:24 EDT    3.49   3.95    7  249    8  56.7  56.7 1019.8 32.9  1.026 -99.9 -99.99 -9.99
2019/10/15 21:30 EDT    3.50   3.96    7  252    9  56.7  56.7 1019.9 32.9  1.026 -99.9 -99.99 -9.99
2019/10/15 21:36 EDT    3.50   3.97    7  248    9  56.5  56.7 1019.9 33.2  1.026 -99.9 -99.99 -9.99
2019/10/15 21:42 EDT    3.50   3.96    7  255    8  56.5  56.7 1019.9 33.2  1.026 -99.9 -99.99 -9.99
2019/10/15 21:48 EDT    3.49   4.01    6  256    8  56.5  56.7 1019.9 33.2  1.026 -99.9 -99.99 -9.99
2019/10/15 21:54 EDT    3.48   3.98    6  256    8  56.3  56.7 1019.9 33.2  1.026 -99.9 -99.99 -9.99
2019/10/15 22:00 EDT    3.46   3.95    6  255    7  56.1  56.7 1019.9 33.2  1.026 -99.9 -99.99 -9.99
2019/10/15 22:06 EDT    3.43   3.96    6  257    7  56.1  56.7 1019.9 33.2  1.026 -99.9 -99.99 -9.99
2019/10/15 22:12 EDT    3.40   3.89    5  257    8  56.1  56.7 1019.9 33.2  1.026 -99.9 -99.99 -9.99
2019/10/15 22:18 EDT    3.37   3.89    6  253    8  56.3  56.7 1019.9 33.2  1.026 -99.9 -99.99 -9.99
2019/10/15 22:24 EDT    3.33   3.84    6  249    7  56.1  56.7 1019.9 33.2  1.026 -99.9 -99.99 -9.99
2019/10/15 22:30 EDT    3.28   3.78    5  254    7  55.9  56.7 1019.8 33.2  1.026 -99.9 -99.99 -9.99
2019/10/15 22:36 EDT    3.23   3.81    5  240    6  55.9  56.7 1019.8 33.2  1.026 -99.9 -99.99 -9.99
2019/10/15 22:42 EDT    3.17   3.65    4  238    6  55.9  56.7 1019.8 33.2  1.026 -99.9 -99.99 -9.99
2019/10/15 22:48 EDT    3.11   3.61    4  254    5  56.3  56.8 1019.8 33.1  1.026 -99.9 -99.99 -9.99
2019/10/15 22:54 EDT    3.04   3.58    4  269    5  56.1  56.8 1019.7 33.1  1.026 -99.9 -99.99 -9.99
2019/10/15 23:00 EDT    2.97   3.46    3  281    4  55.8  56.8 1019.7 33.1  1.026 -99.9 -99.99 -9.99
2019/10/15 23:06 EDT    2.89   3.44    1   38    4  55.0  56.8 1019.6 33.1  1.026 -99.9 -99.99 -9.99
2019/10/15 23:12 EDT    2.82   3.33    1  311    4  54.9  56.8 1019.6 33.1  1.026 -99.9 -99.99 -9.99
2019/10/15 23:18 EDT    2.73   3.25    0  331    1  54.7  56.7 1019.6 33.2  1.026 -99.9 -99.99 -9.99
2019/10/15 23:24 EDT    2.65   3.16    0  348    2  54.3  56.7 1019.7 33.2  1.026 -99.9 -99.99 -9.99
2019/10/15 23:30 EDT    2.56   3.09    1   78    2  53.6  56.7 1019.7 33.2  1.026 -99.9 -99.99 -9.99
2019/10/15 23:36 EDT    2.47   3.07    1   76    2  53.6  56.7 1019.5 33.2  1.026 -99.9 -99.99 -9.99
2019/10/15 23:42 EDT    2.37   2.87    1   33    1  53.8  56.7 1019.4 33.2  1.026 -99.9 -99.99 -9.99
2019/10/15 23:48 EDT    2.28   2.82    2   66    2  52.3  56.7 1019.3 33.2  1.026 -99.9 -99.99 -9.99
2019/10/15 23:54 EDT    2.18   2.76    2   65    3  52.0  56.7 1019.3 33.2  1.026 -99.9 -99.99 -9.99
2019/10/16 00:00 EDT    2.08   2.57    1   54    3  52.0  56.7 1019.2 33.2  1.026 -99.9 -99.99 -9.99
2019/10/16 00:06 EDT    1.98   2.51    0   19    1  52.2  56.7 1019.1 33.2  1.026 -99.9 -99.99 -9.99
2019/10/16 00:12 EDT    1.88   2.35    0   54    1  51.8  56.7 1019.1 33.1  1.026 -99.9 -99.99 -9.99
2019/10/16 00:18 EDT    1.78   2.22    1   55    2  51.4  56.7 1019.1 33.1  1.026 -99.9 -99.99 -9.99
2019/10/16 00:24 EDT    1.68   2.22    1   34    2  51.1  56.7 1019.2 33.1  1.026 -99.9 -99.99 -9.99
2019/10/16 00:30 EDT    1.58   2.07    1   37    1  51.1  56.7 1019.1 33.1  1.026 -99.9 -99.99 -9.99
2019/10/16 00:36 EDT    1.48   1.99    1   42    1  51.1  56.7 1019.1 33.1  1.026 -99.9 -99.99 -9.99
2019/10/16 00:42 EDT    1.38   1.95    0   29    1  51.1  56.7 1019.2 33.1  1.026 -99.9 -99.99 -9.99
2019/10/16 00:48 EDT    1.28   1.81    0  121    1  50.9  56.7 1019.2 33.1  1.026 -99.9 -99.99 -9.99
2019/10/16 00:54 EDT    1.18   1.69    0   32    0  51.6  56.7 1019.3 33.1  1.026 -99.9 -99.99 -9.99
2019/10/16 01:00 EDT    1.09   1.61    0    3    1  51.3  56.7 1019.3 33.1  1.026 -99.9 -99.99 -9.99
2019/10/16 01:06 EDT    1.00   1.50    1   49    2  51.1  56.7 1019.3 33.1  1.026 -99.9 -99.99 -9.99
2019/10/16 01:12 EDT    0.91   1.41    1   76    2  50.7  56.7 1019.2 33.1  1.026 -99.9 -99.99 -9.99
2019/10/16 01:18 EDT    0.82   1.36    1   75    2  50.5  56.7 1019.3 33.1  1.026 -99.9 -99.99 -9.99
2019/10/16 01:24 EDT    0.74   1.21    1   37    2  50.2  56.7 1019.2 33.1  1.026 -99.9 -99.99 -9.99
2019/10/16 01:30 EDT    0.66   1.15    1   10    2  50.5  56.7 1019.2 33.1  1.026 -99.9 -99.99 -9.99
2019/10/16 01:36 EDT    0.59   1.15    1   54    2  50.7  56.7 1019.1 33.1  1.026 -99.9 -99.99 -9.99
2019/10/16 01:42 EDT    0.52   0.95    1   41    2  50.7  56.7 1019.1 33.1  1.026 -99.9 -99.99 -9.99
2019/10/16 01:48 EDT    0.45   0.97    1   36    2  51.3  56.7 1019.1 33.1  1.026 -99.9 -99.99 -9.99
2019/10/16 01:54 EDT    0.39   0.83    1   29    2  50.4  56.7 1019.1 33.1  1.026 -99.9 -99.99 -9.99
2019/10/16 02:00 EDT    0.33   0.81    0   31    1  50.5  56.7 1019.2 33.1  1.026 -99.9 -99.99 -9.99
2019/10/16 02:06 EDT    0.28   0.77    0    9    1  50.7  56.7 1019.2 33.0  1.026 -99.9 -99.99 -9.99
2019/10/16 02:12 EDT    0.24   0.70    1   29    1  50.7  56.7 1019.1 33.0  1.026 -99.9 -99.99 -9.99
2019/10/16 02:18 EDT    0.20   0.70    0   39    1  50.2  56.7 1019.1 33.0  1.026 -99.9 -99.99 -9.99
2019/10/16 02:24 EDT    0.16   0.70    0   59    1  50.5  56.7 1019.2 32.9  1.026 -99.9 -99.99 -9.99
2019/10/16 02:30 EDT    0.13   0.64    1   40    2  50.0  56.7 1019.2 32.8  1.025 -99.9 -99.99 -9.99
2019/10/16 02:36 EDT    0.11   0.62    1   49    1  50.0  56.7 1019.2 32.9  1.026 -99.9 -99.99 -9.99
2019/10/16 02:42 EDT    0.09   0.63    1   68    2  49.8  56.7 1019.1 32.9  1.026 -99.9 -99.99 -9.99
2019/10/16 02:48 EDT    0.07   0.59    1   46    1  49.5  56.7 1019.1 33.0  1.026 -99.9 -99.99 -9.99
2019/10/16 02:54 EDT    0.07   0.62    0   35    2  49.6  56.7 1019.1 33.0  1.026 -99.9 -99.99 -9.99
2019/10/16 03:00 EDT    0.06   0.60    1   54    1  49.3  56.5 1019.1 33.1  1.026 -99.9 -99.99 -9.99
2019/10/16 03:06 EDT    0.06   0.58    2   80    2  49.8  56.5 1019.0 33.1  1.026 -99.9 -99.99 -9.99
2019/10/16 03:12 EDT    0.07   0.63    1   54    3  50.0  56.5 1018.9 33.1  1.026 -99.9 -99.99 -9.99
2019/10/16 03:18 EDT    0.08   0.70    2   59    2  50.0  56.5 1018.8 33.1  1.026 -99.9 -99.99 -9.99
2019/10/16 03:24 EDT    0.10   0.64    1   46    2  49.3  56.5 1018.8 33.1  1.026 -99.9 -99.99 -9.99
2019/10/16 03:30 EDT    0.11   0.70    1   50    2  50.2  56.5 1018.8 33.1  1.026 -99.9 -99.99 -9.99
2019/10/16 03:36 EDT    0.14   0.70    1   63    2  50.2  56.5 1018.8 33.1  1.026 -99.9 -99.99 -9.99
2019/10/16 03:42 EDT    0.16   0.72    0   28    2  50.2  56.5 1018.7 33.1  1.026 -99.9 -99.99 -9.99
2019/10/16 03:48 EDT    0.20   0.77    0   29    1  50.4  56.5 1018.7 33.1  1.026 -99.9 -99.99 -9.99
2019/10/16 03:54 EDT    0.23   0.77    1   53    1  50.2  56.5 1018.6 33.1  1.026 -99.9 -99.99 -9.99
2019/10/16 04:00 EDT    0.27   0.84    1   77    1  50.0  56.5 1018.6 33.1  1.026 -99.9 -99.99 -9.99
2019/10/16 04:06 EDT    0.31   0.86    0   27    1  49.8  56.5 1018.5 32.9  1.026 -99.9 -99.99 -9.99
2019/10/16 04:12 EDT    0.35   0.94    1  100    1  50.2  56.5 1018.3 33.1  1.026 -99.9 -99.99 -9.99
2019/10/16 04:18 EDT    0.39   0.92    3  144    4  51.3  56.5 1018.3 33.1  1.026 -99.9 -99.99 -9.99
2019/10/16 04:24 EDT    0.44   0.98    5  146    6  53.6  56.5 1018.2 33.1  1.026 -99.9 -99.99 -9.99
2019/10/16 04:30 EDT    0.49   1.07    5  141    6  53.8  56.5 1018.2 33.1  1.026 -99.9 -99.99 -9.99
2019/10/16 04:36 EDT    0.55   1.00    4  149    6  54.1  56.5 1018.2 33.0  1.026 -99.9 -99.99 -9.99
2019/10/16 04:42 EDT    0.60   1.18    4  154    5  54.1  56.5 1018.2 33.1  1.026 -99.9 -99.99 -9.99
2019/10/16 04:48 EDT    0.66   1.21    3  143    5  54.5  56.5 1018.3 33.0  1.026 -99.9 -99.99 -9.99
2019/10/16 04:54 EDT    0.72   1.30    3  137    4  54.3  56.5 1018.3 33.0  1.026 -99.9 -99.99 -9.99
2019/10/16 05:00 EDT    0.78   1.37    4  144    4  54.3  56.5 1018.3 33.0  1.026 -99.9 -99.99 -9.99
2019/10/16 05:06 EDT    0.84   1.35    4  142    4  54.1  56.5 1018.2 33.0  1.026 -99.9 -99.99 -9.99
2019/10/16 05:12 EDT    0.90   1.40    3  133    5  54.3  56.5 1018.2 33.0  1.026 -99.9 -99.99 -9.99
2019/10/16 05:18 EDT    0.97   1.49    4  128    5  54.3  56.5 1018.2 33.0  1.026 -99.9 -99.99 -9.99
2019/10/16 05:24 EDT    1.03   1.60    3  126    5  54.5  56.3 1018.3 33.1  1.026 -99.9 -99.99 -9.99
2019/10/16 05:30 EDT    1.10   1.67    4  129    4  54.5  56.3 1018.2 33.1  1.026 -99.9 -99.99 -9.99
2019/10/16 05:36 EDT    1.17   1.74    4  124    5  54.7  56.5 1018.1 33.0  1.026 -99.9 -99.99 -9.99
2019/10/16 05:42 EDT    1.25   1.87    3  127    5  54.5  56.3 1018.2 33.1  1.026 -99.9 -99.99 -9.99
2019/10/16 05:48 EDT    1.32   1.85    3  129    4  54.1  56.3 1018.2 33.1  1.026 -99.9 -99.99 -9.99
2019/10/16 05:54 EDT    1.39   1.99    3  121    3  54.3  56.3 1018.0 33.1  1.026 -99.9 -99.99 -9.99
2019/10/16 06:00 EDT    1.47   2.07    3  134    3  54.0  56.3 1018.1 33.1  1.026 -99.9 -99.99 -9.99
2019/10/16 06:06 EDT    1.55   2.09    2  122    4  53.8  56.3 1017.9 33.1  1.026 -99.9 -99.99 -9.99
2019/10/16 06:12 EDT    1.62   2.18    2  116    3  53.6  56.3 1018.0 33.1  1.026 -99.9 -99.99 -9.99
2019/10/16 06:18 EDT    1.70   2.26    4  125    5  54.1  56.3 1018.0 33.1  1.026 -99.9 -99.99 -9.99
2019/10/16 06:24 EDT    1.78   2.36    3  118    5  54.1  56.3 1017.9 33.1  1.026 -99.9 -99.99 -9.99
2019/10/16 06:30 EDT    1.87   2.49    4  144    5  54.1  56.3 1018.1 33.1  1.026 -99.9 -99.99 -9.99
2019/10/16 06:36 EDT    1.95   2.58    4  134    5  55.0  56.3 1018.1 33.1  1.026 -99.9 -99.99 -9.99
2019/10/16 06:42 EDT    2.03   2.63    4  126    6  55.2  56.3 1018.0 33.1  1.026 -99.9 -99.99 -9.99
2019/10/16 06:48 EDT    2.11   2.68    4  126    6  55.0  56.5 1017.8 33.0  1.026 -99.9 -99.99 -9.99
2019/10/16 06:54 EDT    2.19   2.81    4  125    7  55.2  56.3 1017.8 33.1  1.026 -99.9 -99.99 -9.99
2019/10/16 07:00 EDT    2.28   2.92    5  133    6  55.4  56.3 1017.7 33.1  1.026 -99.9 -99.99 -9.99
2019/10/16 07:06 EDT    2.36   2.99    5  134    7  55.4  56.3 1017.7 33.1  1.026 -99.9 -99.99 -9.99
2019/10/16 07:12 EDT    2.44   3.12    6  139    7  55.8  56.3 1017.5 33.1  1.026 -99.9 -99.99 -9.99
2019/10/16 07:18 EDT    2.53   3.20    6  131    8  55.9  56.3 1017.4 33.1  1.026 -99.9 -99.99 -9.99
2019/10/16 07:24 EDT    2.61   3.25    6  135    8  56.1  56.3 1017.2 32.8  1.026 -99.9 -99.99 -9.99
2019/10/16 07:30 EDT    2.69   3.35    5  127   10  56.5  56.3 1017.2 33.0  1.026 -99.9 -99.99 -9.99
2019/10/16 07:36 EDT    2.77   3.45    8  141    9  56.7  56.3 1017.4 32.9  1.026 -99.9 -99.99 -9.99
2019/10/16 07:42 EDT    2.85   3.52    7  134   10  57.0  56.3 1017.4 32.9  1.026 -99.9 -99.99 -9.99
2019/10/16 07:48 EDT    2.93   3.64    6  136   11  57.4  56.3 1017.5 33.0  1.026 -99.9 -99.99 -9.99
2019/10/16 07:54 EDT    3.01   3.70    9  135   11  57.6  56.3 1017.6 32.9  1.026 -99.9 -99.99 -9.99
2019/10/16 08:00 EDT    3.08   3.84    8  131   12  57.7  56.3 1017.6 33.0  1.026 -99.9 -99.99 -9.99
2019/10/16 08:06 EDT    3.16   3.89    8  130   11  57.9  56.3 1017.5 33.1  1.026 -99.9 -99.99 -9.99
2019/10/16 08:12 EDT    3.23   3.97    9  137   12  58.1  56.3 1017.6 33.1  1.026 -99.9 -99.99 -9.99
2019/10/16 08:18 EDT    3.30   4.03    6  125   10  58.5  56.3 1017.6 32.6  1.025 -99.9 -99.99 -9.99
2019/10/16 08:24 EDT    3.36   4.04    8  129   12  58.5  56.3 1017.5 33.1  1.026 -99.9 -99.99 -9.99
2019/10/16 08:30 EDT    3.42   4.15    9  123   13  58.5  56.3 1017.4 33.1  1.026 -99.9 -99.99 -9.99
2019/10/16 08:36 EDT    3.48   4.25   10  133   16  58.5  56.3 1017.4 32.7  1.025 -99.9 -99.99 -9.99
2019/10/16 08:42 EDT    3.54   4.29   10  114   13  58.5  56.5 1017.2 32.9  1.026 -99.9 -99.99 -9.99
2019/10/16 08:48 EDT    3.59   4.41   11  123   14  58.6  56.5 1016.8 32.8  1.026 -99.9 -99.99 -9.99
2019/10/16 08:54 EDT    3.64   4.49   12  113   17  58.5  56.5 1016.6 32.9  1.026 -99.9 -99.99 -9.99
2019/10/16 09:00 EDT    3.69   4.48    8  117   15  58.8  56.5 1016.5 33.0  1.026 -99.9 -99.99 -9.99
2019/10/16 09:06 EDT    3.73   4.52   11  118   13  58.8  56.5 1016.5 32.4  1.025 -99.9 -99.99 -9.99
2019/10/16 09:12 EDT    3.76   4.60   11  122   16  58.6  56.5 1016.3 32.7  1.025 -99.9 -99.99 -9.99
2019/10/16 09:18 EDT    3.79   4.55   12  112   16  58.6  56.5 1016.1 32.8  1.025 -99.9 -99.99 -9.99
2019/10/16 09:24 EDT    3.82   4.58   13  125   18  58.6  56.5 1016.0 33.1  1.026 -99.9 -99.99 -9.99
2019/10/16 09:30 EDT    3.84   4.67   11  126   18  58.6  56.5 1015.9 33.0  1.026 -99.9 -99.99 -9.99
2019/10/16 09:36 EDT    3.86   4.71   13  123   17  58.6  56.5 1015.8 33.1  1.026 -99.9 -99.99 -9.99
2019/10/16 09:42 EDT    3.87   4.70   13  125   18  58.8  56.5 1015.7 33.1  1.026 -99.9 -99.99 -9.99
2019/10/16 09:48 EDT    3.87   4.68   13  121   18  59.0  56.5 1015.7 33.1  1.026 -99.9 -99.99 -9.99
2019/10/16 09:54 EDT    3.87   4.68   13  122   20  59.0  56.5 1015.7 32.9  1.026 -99.9 -99.99 -9.99
2019/10/16 10:00 EDT    3.87   4.64   12  127   18  59.2  56.5 1015.6 33.1  1.026 -99.9 -99.99 -9.99
2019/10/16 10:06 EDT    3.85   4.68   12  119   18  59.4  56.5 1015.5 32.8  1.025 -99.9 -99.99 -9.99
2019/10/16 10:12 EDT    3.84   4.68   13  119   18  59.2  56.5 1015.3 33.1  1.026 -99.9 -99.99 -9.99
2019/10/16 10:18 EDT    3.82   4.69   15  113   22  59.2  56.5 1015.4 33.0  1.026 -99.9 -99.99 -9.99
2019/10/16 10:24 EDT    3.79   4.70   12  122   19  59.7  56.5 1015.3 33.1  1.026 -99.9 -99.99 -9.99
2019/10/16 10:30 EDT    3.75   4.64   14  113   17  59.4  56.5 1015.3 33.1  1.026 -99.9 -99.99 -9.99
2019/10/16 10:36 EDT    3.72   4.60   14  116   19  59.5  56.5 1015.2 33.0  1.026 -99.9 -99.99 -9.99
2019/10/16 10:42 EDT    3.67   4.61   12  113   20  59.5  56.5 1015.1 33.1  1.026 -99.9 -99.99 -9.99
2019/10/16 10:48 EDT    3.62   4.57   14  117   22  59.5  56.3 1015.0 33.1  1.026 -99.9 -99.99 -9.99
2019/10/16 10:54 EDT    3.57   4.52   13  116   18  59.7  56.3 1015.1 33.0  1.026 -99.9 -99.99 -9.99
2019/10/16 11:00 EDT    3.51   4.49   13  116   18  59.5  56.3 1015.3 32.9  1.026 -99.9 -99.99 -9.99
2019/10/16 11:06 EDT    3.45   4.43   12  127   19  59.7  56.3 1015.5 32.8  1.025 -99.9 -99.99 -9.99
2019/10/16 11:12 EDT    3.38   4.38   14  119   17  59.4  56.3 1015.6 32.9  1.026 -99.9 -99.99 -9.99
2019/10/16 11:18 EDT    3.31   4.24   12  120   18  59.4  56.3 1015.6 33.0  1.026 -99.9 -99.99 -9.99
2019/10/16 11:24 EDT    3.24   4.21   13  113   19  59.0  56.3 1015.3 32.9  1.026 -99.9 -99.99 -9.99
2019/10/16 11:30 EDT    3.16   4.09   16  114   21  58.8  56.3 1014.8 32.9  1.026 -99.9 -99.99 -9.99
2019/10/16 11:36 EDT    3.08   4.02   11  119   18  59.2  56.3 1014.8 32.9  1.026 -99.9 -99.99 -9.99
2019/10/16 11:42 EDT    3.00   3.95   15  121   20  58.8  56.3 1014.5 32.9  1.026 -99.9 -99.99 -9.99
2019/10/16 11:48 EDT    2.91   3.85   14  111   19  58.8  56.3 1014.3 32.9  1.026 -99.9 -99.99 -9.99
2019/10/16 11:54 EDT    2.82   3.75   13  114   21  58.6  56.3 1014.5 32.8  1.026 -99.9 -99.99 -9.99
2019/10/16 12:00 EDT    2.73   3.65   14  113   19  58.6  56.3 1014.3 32.9  1.026 -99.9 -99.99 -9.99
2019/10/16 12:06 EDT    2.63   3.54   15  118   20  58.5  56.3 1014.3 32.9  1.026 -99.9 -99.99 -9.99
2019/10/16 12:12 EDT    2.54   3.39   11  116   18  59.0  56.3 1014.1 32.9  1.026 -99.9 -99.99 -9.99
2019/10/16 12:18 EDT    2.44   3.30   14  119   20  58.6  56.3 1013.8 32.9  1.026 -99.9 -99.99 -9.99
2019/10/16 12:24 EDT    2.34   3.20   14  116   19  58.8  56.3 1013.7 32.9  1.026 -99.9 -99.99 -9.99
2019/10/16 12:30 EDT    2.24   3.07   14  111   19  58.6  56.3 1013.6 32.9  1.026 -99.9 -99.99 -9.99
2019/10/16 12:36 EDT    2.14   2.94   12  118   20  58.8  56.3 1013.6 32.9  1.026 -99.9 -99.99 -9.99
2019/10/16 12:42 EDT    2.04   2.83   11  116   16  59.2  56.3 1013.6 32.9  1.026 -99.9 -99.99 -9.99
2019/10/16 12:48 EDT    1.94   2.72   15  122   20  58.6  56.3 1013.5 32.6  1.025 -99.9 -99.99 -9.99
2019/10/16 12:54 EDT    1.85   2.62   13  110   19  58.8  56.3 1013.5 32.8  1.025 -99.9 -99.99 -9.99
2019/10/16 13:00 EDT    1.75   2.52   13  112   19  59.0  56.3 1013.5 32.9  1.026 -99.9 -99.99 -9.99
2019/10/16 13:06 EDT    1.65   2.37   16  117   20  58.8  56.3 1013.3 32.9  1.026 -99.9 -99.99 -9.99
2019/10/16 13:12 EDT    1.55   2.34    9  122   18  59.2  56.3 1013.3 32.9  1.026 -99.9 -99.99 -9.99
2019/10/16 13:18 EDT    1.46   2.22   16  120   18  58.6  56.3 1013.3 32.9  1.026 -99.9 -99.99 -9.99
2019/10/16 13:24 EDT    1.36   2.11   12  113   19  59.0  56.3 1013.1 32.9  1.026 -99.9 -99.99 -9.99
2019/10/16 13:30 EDT    1.27   2.13   13  111   20  58.6  56.3 1012.9 32.9  1.026 -99.9 -99.99 -9.99
2019/10/16 13:36 EDT    1.18   1.92   11  113   19  58.8  56.3 1012.7 32.9  1.026 -99.9 -99.99 -9.99
2019/10/16 13:42 EDT    1.09   1.84   14  114   18  58.6  56.3 1012.6 33.0  1.026 -99.9 -99.99 -9.99
2019/10/16 13:48 EDT    1.01   1.82   13  110   19  58.6  56.3 1012.5 32.9  1.026 -99.9 -99.99 -9.99
2019/10/16 13:54 EDT    0.93   1.65   16  112   19  58.5  56.3 1012.4 32.9  1.026 -99.9 -99.99 -9.99
2019/10/16 14:00 EDT    0.85   1.66   15  112   21  58.5  56.3 1012.2 32.7  1.025 -99.9 -99.99 -9.99
2019/10/16 14:06 EDT    0.78   1.58   14  114   19  58.5  56.3 1012.1 33.0  1.026 -99.9 -99.99 -9.99
2019/10/16 14:12 EDT    0.71   1.51   14  113   19  58.6  56.3 1012.0 32.8  1.026 -99.9 -99.99 -9.99
2019/10/16 14:18 EDT    0.65   1.49   12  117   16  58.6  56.5 1011.9 32.9  1.026 -99.9 -99.99 -9.99
2019/10/16 14:24 EDT    0.58   1.36   14  105   18  58.6  56.5 1011.7 32.8  1.026 -99.9 -99.99 -9.99
2019/10/16 14:30 EDT    0.53   1.34   12  115   20  58.8  56.5 1011.8 32.9  1.026 -99.9 -99.99 -9.99
2019/10/16 14:36 EDT    0.48   1.42   14  111   19  58.6  56.5 1011.6 32.9  1.026 -99.9 -99.99 -9.99
2019/10/16 14:42 EDT    0.43   1.26   12  100   17  58.8  56.5 1011.4 32.9  1.026 -99.9 -99.99 -9.99
2019/10/16 14:48 EDT    0.39   1.31   14  107   19  58.8  56.5 1011.3 32.9  1.026 -99.9 -99.99 -9.99
2019/10/16 14:54 EDT    0.35   1.29   12  119   17  58.8  56.5 1011.1 32.9  1.026 -99.9 -99.99 -9.99
2019/10/16 15:00 EDT    0.32   1.17   10   99   15  58.6  56.5 1010.9 32.9  1.026 -99.9 -99.99 -9.99
2019/10/16 15:06 EDT    0.29   1.25   12   99   19  58.5  56.5 1010.9 32.9  1.026 -99.9 -99.99 -9.99
2019/10/16 15:12 EDT    0.26   1.28   12  109   15  58.6  56.5 1010.7 32.9  1.026 -99.9 -99.99 -9.99
2019/10/16 15:18 EDT    0.24   1.14   11  105   18  58.6  56.5 1010.5 32.9  1.026 -99.9 -99.99 -9.99
2019/10/16 15:24 EDT    0.23   1.30   15   99   18  58.6  56.5 1010.3 32.9  1.026 -99.9 -99.99 -9.99
2019/10/16 15:30 EDT    0.22   1.24   11   98   20  58.6  56.5 1010.1 32.9  1.026 -99.9 -99.99 -9.99
2019/10/16 15:36 EDT    0.21   1.21   13  100   19  58.6  56.5 1009.9 32.9  1.026 -99.9 -99.99 -9.99
2019/10/16 15:42 EDT    0.21   1.26   13  109   23  58.8  56.5 1009.8 32.9  1.026 -99.9 -99.99 -9.99
2019/10/16 15:48 EDT    0.21   1.18   14  100   19  58.6  56.5 1009.8 32.9  1.026 -99.9 -99.99 -9.99
2019/10/16 15:54 EDT    0.21   1.23   13  106   23  58.6  56.5 1009.7 32.9  1.026 -99.9 -99.99 -9.99
2019/10/16 16:00 EDT    0.22   1.27   12   97   17  58.6  56.5 1009.6 32.9  1.026 -99.9 -99.99 -9.99
2019/10/16 16:06 EDT    0.23   1.18   14  105   19  58.6  56.5 1009.3 32.9  1.026 -99.9 -99.99 -9.99
2019/10/16 16:12 EDT    0.24   1.27   12  101   20  58.6  56.5 1009.1 32.9  1.026 -99.9 -99.99 -9.99
2019/10/16 16:18 EDT    0.26   1.35   14  101   22  58.6  56.5 1009.1 32.9  1.026 -99.9 -99.99 -9.99
2019/10/16 16:24 EDT    0.28   1.43   12  103   20  58.8  56.5 1008.9 32.9  1.026 -99.9 -99.99 -9.99
2019/10/16 16:30 EDT    0.30   1.50   13   99   19  58.8  56.5 1008.7 32.9  1.026 -99.9 -99.99 -9.99
2019/10/16 16:36 EDT    0.33   1.45   14   99   19  58.8  56.5 1008.5 32.9  1.026 -99.9 -99.99 -9.99
2019/10/16 16:42 EDT    0.35   1.47   12  100   22  58.8  56.5 1008.3 32.9  1.026 -99.9 -99.99 -9.99
2019/10/16 16:48 EDT    0.38   1.55   13  101   19  58.8  56.5 1008.1 32.9  1.026 -99.9 -99.99 -9.99
2019/10/16 16:54 EDT    0.41   1.58   15  112   18  58.8  56.5 1008.0 32.9  1.026 -99.9 -99.99 -9.99
2019/10/16 17:00 EDT    0.45   1.57   13   99   18  58.8  56.5 1007.8 32.9  1.026 -99.9 -99.99 -9.99
2019/10/16 17:06 EDT    0.48   1.61   12  101   18  59.0  56.5 1007.8 32.8  1.026 -99.9 -99.99 -9.99
2019/10/16 17:12 EDT    0.52   1.65   13   85   19  59.0  56.5 1007.6 32.8  1.026 -99.9 -99.99 -9.99
2019/10/16 17:18 EDT    0.56   1.70   11  106   17  59.0  56.5 1007.6 32.9  1.026 -99.9 -99.99 -9.99
2019/10/16 17:24 EDT    0.60   1.71    8   91   14  58.8  56.5 1007.5 32.9  1.026 -99.9 -99.99 -9.99
2019/10/16 17:30 EDT    0.64   1.70   11   92   17  58.6  56.5 1007.1 32.9  1.026 -99.9 -99.99 -9.99
2019/10/16 17:36 EDT    0.69   1.79   11   94   17  58.6  56.5 1006.8 32.9  1.026 -99.9 -99.99 -9.99
2019/10/16 17:42 EDT    0.74   1.82   13   81   18  58.5  56.5 1006.5 32.9  1.026 -99.9 -99.99 -9.99
2019/10/16 17:48 EDT    0.78   1.92   11   87   16  58.5  56.5 1006.2 32.9  1.026 -99.9 -99.99 -9.99
2019/10/16 17:54 EDT    0.84   2.03   14   78   18  58.6  56.5 1005.9 32.9  1.026 -99.9 -99.99 -9.99
2019/10/16 18:00 EDT    0.89   2.11   14   88   18  58.6  56.5 1005.6 32.9  1.026 -99.9 -99.99 -9.99
2019/10/16 18:06 EDT    0.94   2.20   11   83   20  58.6  56.5 1005.6 32.9  1.026 -99.9 -99.99 -9.99
2019/10/16 18:12 EDT    1.00   2.21   11   95   18  58.5  56.5 1005.6 32.9  1.026 -99.9 -99.99 -9.99
2019/10/16 18:18 EDT    1.06   2.27   13   88   17  58.5  56.5 1005.3 32.8  1.026 -99.9 -99.99 -9.99
2019/10/16 18:24 EDT    1.12   2.35   13   89   17  58.5  56.5 1005.2 32.9  1.026 -99.9 -99.99 -9.99
2019/10/16 18:30 EDT    1.18   2.39   13   85   16  58.5  56.5 1005.0 32.8  1.026 -99.9 -99.99 -9.99
2019/10/16 18:36 EDT    1.24   2.58   12   85   18  58.5  56.5 1004.8 32.9  1.026 -99.9 -99.99 -9.99
2019/10/16 18:42 EDT    1.31   2.59   11   82   21  58.5  56.5 1004.6 32.8  1.026 -99.9 -99.99 -9.99
2019/10/16 18:48 EDT    1.37   2.58   14   81   21  58.5  56.5 1004.4 32.9  1.026 -99.9 -99.99 -9.99
2019/10/16 18:54 EDT    1.44   2.69   13   85   19  58.6  56.7 1004.2 32.9  1.026 -99.9 -99.99 -9.99
2019/10/16 19:00 EDT    1.51   2.77   13   78   18  58.8  56.7 1004.1 32.9  1.026 -99.9 -99.99 -9.99
2019/10/16 19:06 EDT    1.58   2.79   14   79   21  58.8  56.7 1003.8 32.9  1.026 -99.9 -99.99 -9.99
2019/10/16 19:12 EDT    1.65   2.83   10   92   17  58.8  56.7 1003.9 32.9  1.026 -99.9 -99.99 -9.99
2019/10/16 19:18 EDT    1.73   2.93   11   87   17  59.2  56.7 1003.7 32.9  1.026 -99.9 -99.99 -9.99
2019/10/16 19:24 EDT    1.80   2.98   13   81   18  59.4  56.7 1003.5 32.9  1.026 -99.9 -99.99 -9.99
2019/10/16 19:30 EDT    1.88   3.14   12   82   18  59.7  56.7 1003.2 32.9  1.026 -99.9 -99.99 -9.99
2019/10/16 19:36 EDT    1.95   3.34   13   85   18  59.9  56.7 1003.1 32.8  1.025 -99.9 -99.99 -9.99
2019/10/16 19:42 EDT    2.03   3.32   16   77   20  59.9  56.8 1002.5 32.7  1.025 -99.9 -99.99 -9.99
2019/10/16 19:48 EDT    2.11   3.38   10   82   20  59.5  56.8 1002.5 32.6  1.025 -99.9 -99.99 -9.99
2019/10/16 19:54 EDT    2.18   3.61   10   79   16  59.4  56.8 1002.3 32.7  1.025 -99.9 -99.99 -9.99
2019/10/16 20:00 EDT    2.26   3.76   14   75   20  59.4  56.8 1001.9 32.7  1.025 -99.9 -99.99 -9.99
2019/10/16 20:06 EDT    2.34   3.67   13   82   21  59.4  56.8 1002.0 32.9  1.026 -99.9 -99.99 -9.99
2019/10/16 20:12 EDT    2.41   3.79   11   83   17  59.2  56.8 1001.7 33.0  1.026 -99.9 -99.99 -9.99
2019/10/16 20:18 EDT    2.49   3.94   12   80   18  59.2  56.8 1001.2 32.9  1.026 -99.9 -99.99 -9.99
2019/10/16 20:24 EDT    2.56   3.90   11   78   18  59.0  56.8 1000.9 32.9  1.026 -99.9 -99.99 -9.99
2019/10/16 20:30 EDT    2.63   3.91   13   76   18  59.0  56.8 1000.5 32.9  1.026 -99.9 -99.99 -9.99
2019/10/16 20:36 EDT    2.70   4.11   13   82   17  59.0  56.8 1000.2 32.9  1.025 -99.9 -99.99 -9.99
2019/10/16 20:42 EDT    2.77   4.25   13   86   22  58.8  56.8 1000.1 32.9  1.026 -99.9 -99.99 -9.99
2019/10/16 20:48 EDT    2.84   4.24   13   83   20  58.8  56.8  999.9 32.9  1.026 -99.9 -99.99 -9.99
2019/10/16 20:54 EDT    2.90   4.35   12   78   20  59.0  56.8  999.4 32.9  1.026 -99.9 -99.99 -9.99
2019/10/16 21:00 EDT    2.97   4.45   15   76   19  58.8  56.8  998.9 32.9  1.026 -99.9 -99.99 -9.99
2019/10/16 21:06 EDT    3.02   4.53   13   74   21  58.8  56.8  998.4 32.9  1.025 -99.9 -99.99 -9.99
2019/10/16 21:12 EDT    3.08   4.56   15   72   22  59.0  56.8  998.0 32.9  1.025 -99.9 -99.99 -9.99
2019/10/16 21:18 EDT    3.13   4.56   15   83   20  59.0  56.8  998.0 32.8  1.025 -99.9 -99.99 -9.99
2019/10/16 21:24 EDT    3.18   4.68   15   68   20  58.8  56.8  997.4 32.9  1.026 -99.9 -99.99 -9.99
2019/10/16 21:30 EDT    3.22   4.75   16   74   24  58.6  56.8  996.8 32.8  1.025 -99.9 -99.99 -9.99
2019/10/16 21:36 EDT    3.26   4.86   13   78   25  58.6  56.8  996.4 32.8  1.025 -99.9 -99.99 -9.99
2019/10/16 21:42 EDT    3.29   4.94   17   74   27  58.6  56.8  995.8 32.8  1.025 -99.9 -99.99 -9.99
2019/10/16 21:48 EDT    3.32   4.89   18   79   25  58.8  56.8  995.4 32.8  1.025 -99.9 -99.99 -9.99
2019/10/16 21:54 EDT    3.34   4.93   21   74   28  58.6  56.8  995.0 32.7  1.025 -99.9 -99.99 -9.99
2019/10/16 22:00 EDT    3.36   4.97   16   84   32  58.6  56.8  994.6 32.7  1.025 -99.9 -99.99 -9.99
2019/10/16 22:06 EDT    3.37   5.04   20   86   27  58.8  56.8  994.2 32.8  1.025 -99.9 -99.99 -9.99
2019/10/16 22:12 EDT    3.38   5.12   20   84   30  58.8  56.8  993.9 32.5  1.025 -99.9 -99.99 -9.99
2019/10/16 22:18 EDT    3.38   5.22   17   80   27  58.8  56.8  993.3 32.4  1.025 -99.9 -99.99 -9.99
2019/10/16 22:24 EDT    3.38   5.16   15   85   25  59.2  56.8  993.0 32.0  1.025 -99.9 -99.99 -9.99
2019/10/16 22:30 EDT    3.37   5.23   17   83   31  59.5  56.8  992.4 32.0  1.025 -99.9 -99.99 -9.99
2019/10/16 22:36 EDT    3.35   5.33   18   90   28  59.7  56.8  992.1 32.1  1.025 -99.9 -99.99 -9.99
2019/10/16 22:42 EDT    3.33   5.34   19   83   26  59.7  56.8  991.8 32.1  1.025 -99.9 -99.99 -9.99
2019/10/16 22:48 EDT    3.31   5.34   17   92   24  59.9  56.8  991.5 32.1  1.025 -99.9 -99.99 -9.99
2019/10/16 22:54 EDT    3.27   5.38   17   80   25  59.9  56.8  990.7 32.0  1.025 -99.9 -99.99 -9.99
2019/10/16 23:00 EDT    3.24   5.34   21   84   28  60.3  56.8  990.1 31.9  1.025 -99.9 -99.99 -9.99
2019/10/16 23:06 EDT    3.19   5.48   24   90   30  60.4  56.8  989.9 32.0  1.025 -99.9 -99.99 -9.99
2019/10/16 23:12 EDT    3.15   5.61   19   91   29  60.3  56.8  989.4 32.1  1.025 -99.9 -99.99 -9.99
2019/10/16 23:18 EDT    3.09   5.45   21  101   28  60.6  56.8  988.9 32.1  1.025 -99.9 -99.99 -9.99
2019/10/16 23:24 EDT    3.04   5.37   23  101   37  61.5  56.8  988.5 32.2  1.025 -99.9 -99.99 -9.99
2019/10/16 23:30 EDT    2.97   5.40   24  104   37  61.7  56.8  988.2 32.3  1.025 -99.9 -99.99 -9.99
2019/10/16 23:36 EDT    2.91   5.44   29  104   42  61.9  56.8  987.7 32.3  1.025 -99.9 -99.99 -9.99
2019/10/16 23:42 EDT    2.84   5.60   27  103   37  61.9  56.8  987.1 32.5  1.025 -99.9 -99.99 -9.99
2019/10/16 23:48 EDT    2.76   5.61   28  100   40  61.9  56.8  986.5 32.5  1.025 -99.9 -99.99 -9.99
2019/10/16 23:54 EDT    2.68   5.52   28  110   42  61.7  56.8  986.1 32.4  1.025 -99.9 -99.99 -9.99
2019/10/17 00:00 EDT    2.60   5.40   27  104   38  61.9  56.8  986.2 32.4  1.025 -99.9 -99.99 -9.99
2019/10/17 00:06 EDT    2.52   5.58   27  103   38  61.9  56.8  986.0 32.4  1.025 -99.9 -99.99 -9.99
2019/10/17 00:12 EDT    2.43   5.39   25   99   38  61.9  56.8  985.7 32.4  1.025 -99.9 -99.99 -9.99
2019/10/17 00:18 EDT    2.35   4.99   23   98   35  62.1  56.8  985.6 32.3  1.025 -99.9 -99.99 -9.99
2019/10/17 00:24 EDT    2.25   4.85   24   92   36  61.9  56.8  985.1 32.3  1.025 -99.9 -99.99 -9.99
2019/10/17 00:30 EDT    2.16   4.84   24   97   38  61.9  56.8  984.6 32.0  1.025 -99.9 -99.99 -9.99
2019/10/17 00:36 EDT    2.07   4.79   21   92   31  62.2  56.8  984.7 32.0  1.025 -99.9 -99.99 -9.99
2019/10/17 00:42 EDT    1.97   4.98   15   86   29  62.1  56.8  983.8 32.0  1.025 -99.9 -99.99 -9.99
2019/10/17 00:48 EDT    1.88   4.55   22   90   30  62.1  56.8  983.2 32.0  1.025 -99.9 -99.99 -9.99
2019/10/17 00:54 EDT    1.78   4.53   23   86   31  62.2  56.8  982.5 32.0  1.025 -99.9 -99.99 -9.99
2019/10/17 01:00 EDT    1.68   4.58   24   92   37  62.2  56.7  981.9 32.0  1.025 -99.9 -99.99 -9.99
2019/10/17 01:06 EDT    1.59   4.39   20   79   35  61.9  56.7  981.1 31.9  1.025 -99.9 -99.99 -9.99
2019/10/17 01:12 EDT    1.49   4.45   20   91   36  61.3  56.7  981.0 31.8  1.025 -99.9 -99.99 -9.99
2019/10/17 01:18 EDT    1.40   4.41   21   97   30  61.2  56.7  980.9 31.8  1.025 -99.9 -99.99 -9.99
2019/10/17 01:24 EDT    1.30   4.04   21   83   32  60.8  56.7  980.8 31.8  1.025 -99.9 -99.99 -9.99
2019/10/17 01:30 EDT    1.21   3.97   17   80   34  60.8  56.7  980.6 31.7  1.025 -99.9 -99.99 -9.99
2019/10/17 01:36 EDT    1.12   4.06   20   65   24  61.0  56.7  979.2 31.6  1.025 -99.9 -99.99 -9.99
2019/10/17 01:42 EDT    1.03   3.96   17   62   29  61.2  56.7  977.8 31.7  1.025 -99.9 -99.99 -9.99
2019/10/17 01:48 EDT    0.95   3.89   11   81   21  61.7  56.7  978.0 31.6  1.025 -99.9 -99.99 -9.99
2019/10/17 01:54 EDT    0.86   4.04    6  128   26  61.5  56.7  978.2 31.5  1.024 -99.9 -99.99 -9.99
2019/10/17 02:00 EDT    0.78   4.02    4  138   18  61.5  56.5  978.8 31.4  1.024 -99.9 -99.99 -9.99
2019/10/17 02:06 EDT    0.71   4.05    4  171    8  61.7  56.5  979.1 31.3  1.024 -99.9 -99.99 -9.99
2019/10/17 02:12 EDT    0.63   4.39    5  291    7  61.9  56.5  979.0 31.3  1.024 -99.9 -99.99 -9.99
2019/10/17 02:18 EDT    0.56   3.65    5  284    8  61.9  56.5  978.8 31.3  1.024 -99.9 -99.99 -9.99
2019/10/17 02:24 EDT    0.50   3.31    4  269    7  61.7  56.7  978.9 31.3  1.024 -99.9 -99.99 -9.99
2019/10/17 02:30 EDT    0.44   3.43   10  233   11  61.7  56.7  979.0 31.3  1.024 -99.9 -99.99 -9.99
2019/10/17 02:36 EDT    0.38   2.97   11  228   13  61.2  56.7  979.0 31.5  1.024 -99.9 -99.99 -9.99
2019/10/17 02:42 EDT    0.33   3.02   10  218   16  61.5  56.7  978.7 31.7  1.025 -99.9 -99.99 -9.99
2019/10/17 02:48 EDT    0.29   3.05   13  207   14  61.7  56.7  978.5 31.6  1.025 -99.9 -99.99 -9.99
2019/10/17 02:54 EDT    0.25   2.98   17  206   21  61.3  56.7  978.3 31.6  1.025 -99.9 -99.99 -9.99
2019/10/17 03:00 EDT    0.21   2.82   18  203   21  61.3  56.7  978.2 31.6  1.025 -99.9 -99.99 -9.99
2019/10/17 03:06 EDT    0.19   2.88   17  208   24  61.3  56.7  978.1 31.6  1.025 -99.9 -99.99 -9.99
2019/10/17 03:12 EDT    0.16   2.87   18  224   22  60.4  56.7  977.9 31.5  1.024 -99.9 -99.99 -9.99
2019/10/17 03:18 EDT    0.14   2.63   11  221   21  60.3  56.7  977.7 31.7  1.025 -99.9 -99.99 -9.99
2019/10/17 03:24 EDT    0.13   2.70   20  212   26  59.9  56.7  977.6 31.7  1.025 -99.9 -99.99 -9.99
2019/10/17 03:30 EDT    0.12   2.39   17  211   24  59.7  56.7  977.6 31.7  1.025 -99.9 -99.99 -9.99
2019/10/17 03:36 EDT    0.12   2.32   15  217   21  59.7  56.7  977.5 31.8  1.025 -99.9 -99.99 -9.99
2019/10/17 03:42 EDT    0.12   2.54   15  221   20  60.1  56.7  977.5 31.7  1.025 -99.9 -99.99 -9.99
2019/10/17 03:48 EDT    0.13   2.38   16  231   19  59.9  56.7  977.6 31.8  1.025 -99.9 -99.99 -9.99
2019/10/17 03:54 EDT    0.14   2.49   21  236   24  59.7  56.7  977.8 31.8  1.025 -99.9 -99.99 -9.99
2019/10/17 04:00 EDT    0.16   2.42   26  251   34  58.8  56.7  978.0 31.7  1.025 -99.9 -99.99 -9.99
2019/10/17 04:06 EDT    0.18   2.27   28  252   32  57.7  56.8  978.5 31.8  1.025 -99.9 -99.99 -9.99
2019/10/17 04:12 EDT    0.21   2.37   30  262   38  56.3  56.7  978.8 31.5  1.024 -99.9 -99.99 -9.99
2019/10/17 04:18 EDT    0.24   2.16   25  260   42  55.8  56.8  979.2 31.8  1.025 -99.9 -99.99 -9.99
2019/10/17 04:24 EDT    0.27   2.02   26  264   34  55.0  56.8  979.5 31.7  1.025 -99.9 -99.99 -9.99
2019/10/17 04:30 EDT    0.31   2.03   25  260   31  54.9  56.8  979.8 31.7  1.025 -99.9 -99.99 -9.99
2019/10/17 04:36 EDT    0.35   1.83   24  258   31  54.7  56.8  980.0 31.8  1.025 -99.9 -99.99 -9.99
2019/10/17 04:42 EDT    0.39   1.92   20  256   29  54.5  56.8  980.4 31.8  1.025 -99.9 -99.99 -9.99
2019/10/17 04:48 EDT    0.43   1.96   24  251   31  54.1  56.8  980.6 32.0  1.025 -99.9 -99.99 -9.99
2019/10/17 04:54 EDT    0.48   1.84   23  244   30  54.0  56.8  980.9 31.8  1.025 -99.9 -99.99 -9.99
2019/10/17 05:00 EDT    0.53   1.88   22  241   28  53.8  56.7  981.0 31.7  1.025 -99.9 -99.99 -9.99
2019/10/17 05:06 EDT    0.59   1.92   23  241   26  53.4  56.7  981.2 31.7  1.025 -99.9 -99.99 -9.99
2019/10/17 05:12 EDT    0.64   1.67   21  238   30  53.2  56.7  981.4 31.7  1.025 -99.9 -99.99 -9.99
2019/10/17 05:18 EDT    0.70   1.76   22  238   32  53.1  56.7  981.6 31.4  1.024 -99.9 -99.99 -9.99
2019/10/17 05:24 EDT    0.75   1.81   20  239   30  53.2  56.7  981.8 31.5  1.024 -99.9 -99.99 -9.99
2019/10/17 05:30 EDT    0.81   1.69   24  238   31  53.2  56.7  981.8 31.6  1.025 -99.9 -99.99 -9.99
2019/10/17 05:36 EDT    0.87   1.79   23  247   29  53.1  56.8  982.0 31.8  1.025 -99.9 -99.99 -9.99
2019/10/17 05:42 EDT    0.93   1.77   21  242   27  53.1  56.8  982.2 31.8  1.025 -99.9 -99.99 -9.99
2019/10/17 05:48 EDT    1.00   1.66   22  244   24  53.1  56.8  982.4 31.8  1.025 -99.9 -99.99 -9.99
2019/10/17 05:54 EDT    1.06   1.78   20  239   27  52.9  56.7  982.6 31.8  1.025 -99.9 -99.99 -9.99
2019/10/17 06:00 EDT    1.12   1.81   19  240   25  52.9  56.7  982.8 31.7  1.025 -99.9 -99.99 -9.99
2019/10/17 06:06 EDT    1.19   1.78   23  245   31  52.7  56.8  982.9 31.8  1.025 -99.9 -99.99 -9.99
2019/10/17 06:12 EDT    1.26   1.89   20  248   28  52.9  56.7  983.1 31.7  1.025 -99.9 -99.99 -9.99
2019/10/17 06:18 EDT    1.32   1.89   24  249   26  52.5  56.7  983.0 31.7  1.025 -99.9 -99.99 -9.99
2019/10/17 06:24 EDT    1.39   1.99   22  253   29  52.7  56.7  983.4 31.7  1.025 -99.9 -99.99 -9.99
2019/10/17 06:30 EDT    1.46   2.04   23  248   30  53.1  56.7  983.5 31.7  1.025 -99.9 -99.99 -9.99
2019/10/17 06:36 EDT    1.53   1.99   27  246   32  53.1  56.7  983.6 31.8  1.025 -99.9 -99.99 -9.99
2019/10/17 06:42 EDT    1.60   2.00   23  250   34  53.2  56.7  983.9 31.8  1.025 -99.9 -99.99 -9.99
2019/10/17 06:48 EDT    1.67   1.97   22  248   29  52.9  56.8  984.1 32.0  1.025 -99.9 -99.99 -9.99
2019/10/17 06:54 EDT    1.75   2.18   21  242   27  52.9  56.8  984.3 32.0  1.025 -99.9 -99.99 -9.99
2019/10/17 07:00 EDT    1.82   2.31   23  237   27  52.7  56.7  984.3 32.0  1.025 -99.9 -99.99 -9.99
2019/10/17 07:06 EDT    1.89   2.43   20  240   31  52.9  56.7  984.6 32.0  1.025 -99.9 -99.99 -9.99
2019/10/17 07:12 EDT    1.97   2.57   20  242   30  52.7  56.7  984.7 31.9  1.025 -99.9 -99.99 -9.99
2019/10/17 07:18 EDT    2.04   2.48   20  242   28  52.7  56.7  984.8 32.0  1.025 -99.9 -99.99 -9.99
2019/10/17 07:24 EDT    2.12   2.68   21  243   28  52.5  56.8  985.0 32.0  1.025 -99.9 -99.99 -9.99
2019/10/17 07:30 EDT    2.19   2.74   25  241   31  52.3  56.7  985.0 32.0  1.025 -99.9 -99.99 -9.99
2019/10/17 07:36 EDT    2.27   2.77   22  244   32  52.5  56.7  985.2 31.9  1.025 -99.9 -99.99 -9.99
2019/10/17 07:42 EDT    2.34   2.90   24  241   29  52.5  56.7  985.3 31.9  1.025 -99.9 -99.99 -9.99
2019/10/17 07:48 EDT    2.42   2.99   24  241   32  52.9  56.7  985.4 32.1  1.025 -99.9 -99.99 -9.99
2019/10/17 07:54 EDT    2.50   3.20   26  240   31  53.1  56.8  985.4 32.1  1.025 -99.9 -99.99 -9.99
2019/10/17 08:00 EDT    2.57   3.25   23  243   37  53.4  56.8  985.6 32.1  1.025 -99.9 -99.99 -9.99
2019/10/17 08:06 EDT    2.65   3.49   22  240   32  54.0  56.8  985.7 32.1  1.025 -99.9 -99.99 -9.99
2019/10/17 08:12 EDT    2.72   3.54   29  235   35  54.0  56.8  985.6 32.1  1.025 -99.9 -99.99 -9.99
2019/10/17 08:18 EDT    2.80   3.46   28  242   37  54.1  56.8  985.8 32.2  1.025 -99.9 -99.99 -9.99
2019/10/17 08:24 EDT    2.87   3.60   23  243   33  54.3  56.8  986.0 32.3  1.025 -99.9 -99.99 -9.99
2019/10/17 08:30 EDT    2.94   3.64   22  242   33  54.3  57.0  986.0 32.3  1.025 -99.9 -99.99 -9.99
2019/10/17 08:36 EDT    3.01   3.73   23  242   34  54.7  57.0  986.1 32.2  1.025 -99.9 -99.99 -9.99
2019/10/17 08:42 EDT    3.08   3.93   25  242   35  54.7  57.0  986.1 32.3  1.025 -99.9 -99.99 -9.99
2019/10/17 08:48 EDT    3.15   3.96   24  243   36  54.7  56.8  986.1 32.3  1.025 -99.9 -99.99 -9.99
2019/10/17 08:54 EDT    3.21   4.07   25  244   37  54.7  56.8  986.0 32.3  1.025 -99.9 -99.99 -9.99
2019/10/17 09:00 EDT    3.28   4.12   26  247   35  54.7  56.8  985.9 32.2  1.025 -99.9 -99.99 -9.99
2019/10/17 09:06 EDT    3.34   4.24   25  246   34  54.7  56.8  986.0 32.2  1.025 -99.9 -99.99 -9.99
2019/10/17 09:12 EDT    3.39   4.29   25  241   36  54.9  56.8  985.9 32.2  1.025 -99.9 -99.99 -9.99
2019/10/17 09:18 EDT    3.45   4.21   26  248   33  54.7  56.7  985.9 32.3  1.025 -99.9 -99.99 -9.99
2019/10/17 09:24 EDT    3.50   4.28   25  248   34  54.5  56.7  985.9 32.2  1.025 -99.9 -99.99 -9.99
2019/10/17 09:30 EDT    3.55   4.46   26  244   34  54.9  56.7  985.7 32.2  1.025 -99.9 -99.99 -9.99
2019/10/17 09:36 EDT    3.59   4.52   27  246   35  54.9  56.5  985.6 32.3  1.025 -99.9 -99.99 -9.99
2019/10/17 09:42 EDT    3.63   4.55   27  248   39  54.9  56.5  985.6 32.1  1.025 -99.9 -99.99 -9.99
2019/10/17 09:48 EDT    3.67   4.60   26  251   40  55.0  56.5  985.6 32.3  1.025 -99.9 -99.99 -9.99
2019/10/17 09:54 EDT    3.70   4.68   31  248   40  54.9  56.5  985.4 32.0  1.025 -99.9 -99.99 -9.99
2019/10/17 10:00 EDT    3.73   4.74   23  245   37  55.2  56.5  985.6 32.0  1.025 -99.9 -99.99 -9.99
2019/10/17 10:06 EDT    3.75   4.75   27  252   33  54.9  56.5  985.6 32.0  1.025 -99.9 -99.99 -9.99
2019/10/17 10:12 EDT    3.77   4.67   24  248   33  55.2  56.5  985.7 32.0  1.025 -99.9 -99.99 -9.99
2019/10/17 10:18 EDT    3.78   4.73   24  243   37  55.2  56.5  985.7 32.0  1.025 -99.9 -99.99 -9.99
2019/10/17 10:24 EDT    3.79   4.68   26  248   39  55.2  56.7  985.6 32.0  1.025 -99.9 -99.99 -9.99
2019/10/17 10:30 EDT    3.79   4.51   27  252   35  55.2  56.7  985.6 31.9  1.025 -99.9 -99.99 -9.99
2019/10/17 10:36 EDT    3.79   4.62   24  249   32  55.6  56.5  985.6 32.0  1.025 -99.9 -99.99 -9.99
2019/10/17 10:42 EDT    3.78   4.66   25  244   34  55.8  56.5  985.6 31.9  1.025 -99.9 -99.99 -9.99
2019/10/17 10:48 EDT    3.77   4.48   27  252   32  55.9  56.5  985.6 31.9  1.025 -99.9 -99.99 -9.99
2019/10/17 10:54 EDT    3.75   4.44   32  244   36  55.6  56.5  985.5 31.9  1.025 -99.9 -99.99 -9.99
2019/10/17 11:00 EDT    3.73   4.49   30  241   40  55.4  56.5  985.6 31.7  1.025 -99.9 -99.99 -9.99
2019/10/17 11:06 EDT    3.70   4.53   28  243   38  55.9  56.1  985.7 31.7  1.025 -99.9 -99.99 -9.99
2019/10/17 11:12 EDT    3.66   4.40   26  240   37  55.6  55.9  985.9 31.7  1.025 -99.9 -99.99 -9.99
2019/10/17 11:18 EDT    3.62   4.22   27  249   33  55.6  55.9  985.7 31.8  1.025 -99.9 -99.99 -9.99
2019/10/17 11:24 EDT    3.58   4.18   23  240   36  56.1  55.9  985.9 31.6  1.025 -99.9 -99.99 -9.99
2019/10/17 11:30 EDT    3.53   4.17   29  242   33  55.8  55.9  985.7 31.6  1.025 -99.9 -99.99 -9.99
2019/10/17 11:36 EDT    3.48   4.00   30  245   35  55.9  55.8  985.7 31.6  1.025 -99.9 -99.99 -9.99
2019/10/17 11:42 EDT    3.42   3.89   26  246   40  56.1  55.8  985.8 31.6  1.025 -99.9 -99.99 -9.99
2019/10/17 11:48 EDT    3.36   3.94   26  239   35  56.3  55.9  985.8 31.6  1.025 -99.9 -99.99 -9.99
2019/10/17 11:54 EDT    3.29   3.92   25  243   35  56.3  55.9  985.7 31.6  1.025 -99.9 -99.99 -9.99
2019/10/17 12:00 EDT    3.22   3.71   31  238   41  56.1  55.9  985.5 31.6  1.025 -99.9 -99.99 -9.99
2019/10/17 12:06 EDT    3.15   3.60   28  239   37  56.5  55.9  985.6 31.5  1.025 -99.9 -99.99 -9.99
2019/10/17 12:12 EDT    3.07   3.55   31  249   36  56.3  55.9  985.5 31.5  1.025 -99.9 -99.99 -9.99
2019/10/17 12:18 EDT    2.99   3.38   28  239   38  56.5  55.8  985.6 31.5  1.025 -99.9 -99.99 -9.99
2019/10/17 12:24 EDT    2.91   3.33   28  241   37  56.5  55.8  985.5 31.5  1.025 -99.9 -99.99 -9.99
2019/10/17 12:30 EDT    2.82   3.30   28  247   35  56.7  55.8  985.5 31.4  1.025 -99.9 -99.99 -9.99
2019/10/17 12:36 EDT    2.74   3.19   31  244   40  56.5  55.8  985.3 31.5  1.025 -99.9 -99.99 -9.99
2019/10/17 12:42 EDT    2.65   3.10   26  239   38  56.8  55.8  985.4 31.7  1.025 -99.9 -99.99 -9.99
2019/10/17 12:48 EDT    2.56   3.02   29  240   38  56.8  55.9  985.3 31.6  1.025 -99.9 -99.99 -9.99
2019/10/17 12:54 EDT    2.47   2.89   31  235   35  56.8  55.9  985.2 31.6  1.025 -99.9 -99.99 -9.99
2019/10/17 13:00 EDT    2.37   2.81   30  240   39  57.0  55.9  985.3 31.7  1.025 -99.9 -99.99 -9.99
2019/10/17 13:06 EDT    2.28   2.74   30  235   39  57.0  55.9  985.3 31.6  1.025 -99.9 -99.99 -9.99
2019/10/17 13:12 EDT    2.18   2.61   34  245   42  57.0  55.9  985.2 31.7  1.025 -99.9 -99.99 -9.99
2019/10/17 13:18 EDT    2.09   2.33   29  243   41  57.0  55.9  985.3 31.7  1.025 -99.9 -99.99 -9.99
2019/10/17 13:24 EDT    1.99   2.32   28  246   42  57.2  55.9  985.5 31.8  1.025 -99.9 -99.99 -9.99
2019/10/17 13:30 EDT    1.90   2.20   31  246   41  57.2  55.9  985.3 31.7  1.025 -99.9 -99.99 -9.99
2019/10/17 13:36 EDT    1.80   2.05   29  242   38  57.2  55.9  985.4 31.7  1.025 -99.9 -99.99 -9.99
2019/10/17 13:42 EDT    1.71   2.14   30  243   37  57.2  55.9  985.4 31.6  1.025 -99.9 -99.99 -9.99
2019/10/17 13:48 EDT    1.62   1.91   25  252   37  57.2  55.9  985.7 31.7  1.025 -99.9 -99.99 -9.99
2019/10/17 13:54 EDT    1.53   1.85   23  250   37  57.2  55.9  985.8 31.6  1.025 -99.9 -99.99 -9.99
2019/10/17 14:00 EDT    1.44   1.78   25  247   29  57.2  55.9  985.8 31.6  1.025 -99.9 -99.99 -9.99
2019/10/17 14:06 EDT    1.35   1.79   27  240   33  57.0  55.9  985.7 31.6  1.025 -99.9 -99.99 -9.99
2019/10/17 14:12 EDT    1.26   1.66   25  240   41  56.8  55.9  985.9 31.6  1.025 -99.9 -99.99 -9.99
2019/10/17 14:18 EDT    1.18   1.49   31  242   39  56.7  55.9  985.8 31.5  1.025 -99.9 -99.99 -9.99
2019/10/17 14:24 EDT    1.10   1.45   21  248   39  56.7  55.8  986.2 31.5  1.025 -99.9 -99.99 -9.99
2019/10/17 14:30 EDT    1.02   1.29   29  244   35  56.5  55.8  986.0 31.6  1.025 -99.9 -99.99 -9.99
2019/10/17 14:36 EDT    0.94   1.24   25  246   34  56.5  55.8  986.1 31.6  1.025 -99.9 -99.99 -9.99
2019/10/17 14:42 EDT    0.87   1.13   26  242   31  56.8  55.8  986.2 31.6  1.025 -99.9 -99.99 -9.99
2019/10/17 14:48 EDT    0.81   0.99   22  248   35  56.8  55.8  986.4 31.6  1.025 -99.9 -99.99 -9.99
2019/10/17 14:54 EDT    0.74   1.00   24  244   29  56.7  55.8  986.5 31.6  1.025 -99.9 -99.99 -9.99
2019/10/17 15:00 EDT    0.68   0.86   28  247   33  56.7  55.8  986.5 31.7  1.025 -99.9 -99.99 -9.99
2019/10/17 15:06 EDT    0.63   0.85   22  245   34  56.7  55.8  986.8 31.8  1.025 -99.9 -99.99 -9.99
2019/10/17 15:12 EDT    0.57   0.75   24  244   28  56.5  55.8  986.9 31.9  1.025 -99.9 -99.99 -9.99
2019/10/17 15:18 EDT    0.53   0.71   26  252   35  56.3  55.8  987.0 31.9  1.025 -99.9 -99.99 -9.99
2019/10/17 15:24 EDT    0.49   0.69   20  244   28  56.3  55.8  987.2 31.9  1.025 -99.9 -99.99 -9.99
2019/10/17 15:30 EDT    0.45   0.56   19  249   26  56.1  55.8  987.4 31.5  1.025 -99.9 -99.99 -9.99
2019/10/17 15:36 EDT    0.42   0.58   20  250   24  56.3  55.8  987.5 31.6  1.025 -99.9 -99.99 -9.99
2019/10/17 15:42 EDT    0.39   0.44   20  246   27  56.5  55.8  987.6 31.9  1.025 -99.9 -99.99 -9.99
2019/10/17 15:48 EDT    0.36   0.36   25  253   27  56.7  55.8  987.5 32.0  1.025 -99.9 -99.99 -9.99
2019/10/17 15:54 EDT    0.34   0.46   24  253   30  56.7  55.8  987.6 32.0  1.025 -99.9 -99.99 -9.99
2019/10/17 16:00 EDT    0.33   0.37   21  255   30  56.8  55.8  987.9 32.0  1.025 -99.9 -99.99 -9.99
2019/10/17 16:06 EDT    0.32   0.37   27  256   35  55.9  55.8  988.0 32.1  1.025 -99.9 -99.99 -9.99
2019/10/17 16:12 EDT    0.31   0.40   21  277   32  55.2  55.8  988.6 32.1  1.025 -99.9 -99.99 -9.99
2019/10/17 16:18 EDT    0.31   0.39   20  277   31  54.9  55.8  988.7 32.0  1.025 -99.9 -99.99 -9.99
2019/10/17 16:24 EDT    0.31   0.31   22  274   26  55.0  55.8  988.8 32.0  1.025 -99.9 -99.99 -9.99
2019/10/17 16:30 EDT    0.32   0.28   22  274   30  55.0  55.6  989.0 32.1  1.025 -99.9 -99.99 -9.99
2019/10/17 16:36 EDT    0.32   0.28   24  267   32  55.0  55.6  989.0 32.1  1.025 -99.9 -99.99 -9.99
2019/10/17 16:42 EDT    0.34   0.25   18  277   31  55.0  55.8  989.3 32.0  1.025 -99.9 -99.99 -9.99
2019/10/17 16:48 EDT    0.35   0.17   17  275   27  55.4  55.8  989.4 32.0  1.025 -99.9 -99.99 -9.99
2019/10/17 16:54 EDT    0.37   0.22   23  266   29  55.2  55.8  989.3 32.1  1.025 -99.9 -99.99 -9.99
2019/10/17 17:00 EDT    0.39   0.23   18  268   28  55.2  55.8  989.5 32.0  1.025 -99.9 -99.99 -9.99
2019/10/17 17:06 EDT    0.41   0.28   24  269   27  55.4  55.8  989.6 32.0  1.025 -99.9 -99.99 -9.99
2019/10/17 17:12 EDT    0.43   0.31   26  271   31  55.6  55.8  989.7 32.0  1.025 -99.9 -99.99 -9.99
2019/10/17 17:18 EDT    0.46   0.31   23  269   38  55.4  55.8  990.0 31.9  1.025 -99.9 -99.99 -9.99
2019/10/17 17:24 EDT    0.49   0.36   26  269   32  54.9  55.8  990.0 31.8  1.025 -99.9 -99.99 -9.99
2019/10/17 17:30 EDT    0.52   0.35   17  267   32  54.9  55.8  990.4 31.9  1.025 -99.9 -99.99 -9.99
2019/10/17 17:36 EDT    0.55   0.40   23  267   28  54.9  55.8  990.3 31.7  1.025 -99.9 -99.99 -9.99
2019/10/17 17:42 EDT    0.58   0.41   24  273   39  54.9  55.6  990.4 31.9  1.025 -99.9 -99.99 -9.99
2019/10/17 17:48 EDT    0.61   0.45   20  276   31  54.9  55.6  990.5 32.0  1.025 -99.9 -99.99 -9.99
2019/10/17 17:54 EDT    0.65   0.47   23  277   32  54.5  55.8  990.5 32.0  1.025 -99.9 -99.99 -9.99
2019/10/17 18:00 EDT    0.69   0.41   17  272   29  54.9  55.8  990.7 32.1  1.025 -99.9 -99.99 -9.99
2019/10/17 18:06 EDT    0.72   0.51   17  273   32  54.7  55.6  990.8 32.1  1.025 -99.9 -99.99 -9.99
2019/10/17 18:12 EDT    0.76   0.51   20  267   28  54.7  55.6  990.9 32.2  1.025 -99.9 -99.99 -9.99
2019/10/17 18:18 EDT    0.80   0.60   17  265   28  54.7  55.6  991.1 32.1  1.025 -99.9 -99.99 -9.99
2019/10/17 18:24 EDT    0.84   0.64   18  263   23  54.3  55.6  991.2 31.8  1.025 -99.9 -99.99 -9.99
2019/10/17 18:30 EDT    0.88   0.69   22  266   29  54.3  55.6  991.3 31.8  1.025 -99.9 -99.99 -9.99
2019/10/17 18:36 EDT    0.93   0.65   19  264   30  54.5  55.6  991.4 31.8  1.025 -99.9 -99.99 -9.99
2019/10/17 18:42 EDT    0.97   0.67   16  262   26  54.7  55.8  991.5 31.8  1.025 -99.9 -99.99 -9.99
2019/10/17 18:48 EDT    1.02   0.69   16  262   26  54.7  55.8  991.7 31.9  1.025 -99.9 -99.99 -9.99
2019/10/17 18:54 EDT    1.07 -99.99 -999 -999 -999 -99.9 -99.9 -999.9 -9.9 -9.999 -99.9 -99.99 -9.99
2019/10/17 19:00 EDT    1.12   0.85 -999 -999 -999 -99.9 -99.9 -999.9 -9.9 -9.999 -99.9 -99.99 -9.99
2019/10/17 19:06 EDT    1.17   0.93   22  259   31  54.9  55.6  991.9 32.6  1.025 -99.9 -99.99 -9.99
2019/10/17 19:12 EDT    1.22   1.00   19  263   27  55.0  55.6  992.2 32.7  1.026 -99.9 -99.99 -9.99
2019/10/17 19:18 EDT    1.27   1.00   20  264   24  55.0  55.6  992.4 32.6  1.025 -99.9 -99.99 -9.99
2019/10/17 19:24 EDT    1.33   1.09   16  263   27  55.2  55.6  992.5 32.2  1.025 -99.9 -99.99 -9.99
2019/10/17 19:30 EDT    1.38   1.28   19  261   26  55.0  55.8  992.5 32.2  1.025 -99.9 -99.99 -9.99
2019/10/17 19:36 EDT    1.44   1.17 -999 -999 -999 -99.9 -99.9 -999.9 -9.9 -9.999 -99.9 -99.99 -9.99
2019/10/17 19:42 EDT    1.50   1.24   20  262   24  54.9  55.8  992.7 32.4  1.025 -99.9 -99.99 -9.99
2019/10/17 19:48 EDT    1.56   1.41   17  270   24  54.7  55.8  992.8 32.3  1.025 -99.9 -99.99 -9.99
2019/10/17 19:54 EDT    1.63   1.45   23  259   28  54.7  55.8  992.7 32.3  1.025 -99.9 -99.99 -9.99
2019/10/17 20:00 EDT    1.69   1.51   17  261   29  54.7  55.6  993.0 32.5  1.025 -99.9 -99.99 -9.99
2019/10/17 20:06 EDT    1.76   1.68   19  260   29  54.5  55.6  993.0 32.6  1.025 -99.9 -99.99 -9.99
2019/10/17 20:12 EDT    1.82   1.67   17  255   24  54.7  55.8  993.0 32.3  1.025 -99.9 -99.99 -9.99
2019/10/17 20:18 EDT    1.89   1.71   18  260   23  54.5  55.8  993.3 32.3  1.025 -99.9 -99.99 -9.99
2019/10/17 20:24 EDT    1.96   1.87   19  263   23  54.5  55.8  993.2 32.8  1.026 -99.9 -99.99 -9.99
2019/10/17 20:30 EDT    2.03   1.91   14  254   21  54.5  55.6  993.4 32.8  1.026 -99.9 -99.99 -9.99
2019/10/17 20:36 EDT    2.10   2.01   20  262   26  54.5  55.6  993.4 32.8  1.026 -99.9 -99.99 -9.99
2019/10/17 20:42 EDT    2.17   2.06   18  258   24  54.3  55.6  993.6 32.8  1.026 -99.9 -99.99 -9.99
2019/10/17 20:48 EDT    2.24   2.20   17  260   25  54.5  55.6  993.9 32.8  1.026 -99.9 -99.99 -9.99
2019/10/17 20:54 EDT    2.31   2.25   17  268   22  54.3  55.6  994.0 32.8  1.026 -99.9 -99.99 -9.99
2019/10/17 21:00 EDT    2.38   2.30   15  265   23  54.1  55.6  994.2 32.8  1.026 -99.9 -99.99 -9.99
2019/10/17 21:06 EDT    2.45   2.45   17  259   21  54.3  55.6  994.3 32.9  1.026 -99.9 -99.99 -9.99
2019/10/17 21:12 EDT    2.51   2.40   14  265   20  54.1  55.4  994.6 32.9  1.026 -99.9 -99.99 -9.99
2019/10/17 21:18 EDT    2.58   2.51   18  256   23  54.3  55.4  994.5 32.9  1.026 -99.9 -99.99 -9.99
2019/10/17 21:24 EDT    2.65   2.60   18  259   24  54.1  55.4  994.7 32.8  1.026 -99.9 -99.99 -9.99
2019/10/17 21:30 EDT    2.71   2.58   13  260   20  54.3  55.4  994.9 32.8  1.026 -99.9 -99.99 -9.99
2019/10/17 21:36 EDT    2.77   2.75   13  263   17  54.1  55.4  995.1 32.9  1.026 -99.9 -99.99 -9.99
2019/10/17 21:42 EDT    2.83   2.78   14  260   20  54.3  55.4  995.2 32.3  1.025 -99.9 -99.99 -9.99
2019/10/17 21:48 EDT    2.89   2.77   17  260   22  54.0  55.4  995.1 32.3  1.025 -99.9 -99.99 -9.99
2019/10/17 21:54 EDT    2.94   2.90   17  260   22  54.1  55.4  995.3 32.3  1.025 -99.9 -99.99 -9.99
2019/10/17 22:00 EDT    2.99   2.97   15  261   22  54.0  55.2  995.5 32.3  1.025 -99.9 -99.99 -9.99
2019/10/17 22:06 EDT    3.04   2.99   13  255   20  54.1  55.2  995.5 32.5  1.025 -99.9 -99.99 -9.99
2019/10/17 22:12 EDT    3.08   3.05   17  253   21  53.8  55.2  995.5 32.7  1.026 -99.9 -99.99 -9.99
2019/10/17 22:18 EDT    3.12   3.10   15  256   21  53.8  55.2  995.7 32.6  1.025 -99.9 -99.99 -9.99
2019/10/17 22:24 EDT    3.15   3.11   16  258   19  53.6  55.2  995.9 32.4  1.025 -99.9 -99.99 -9.99
2019/10/17 22:30 EDT    3.18   3.13   15  250   22  53.8  55.2  996.0 32.4  1.025 -99.9 -99.99 -9.99
2019/10/17 22:36 EDT    3.21   3.21   12  251   20  53.8  55.2  996.2 32.4  1.025 -99.9 -99.99 -9.99
2019/10/17 22:42 EDT    3.23   3.18   17  252   22  53.4  55.2  996.2 32.4  1.025 -99.9 -99.99 -9.99
2019/10/17 22:48 EDT    3.24   3.15   15  254   21  53.6  55.2  996.3 32.4  1.025 -99.9 -99.99 -9.99
2019/10/17 22:54 EDT    3.25   3.24   15  257   18  53.6  55.2  996.4 32.4  1.025 -99.9 -99.99 -9.99
2019/10/17 23:00 EDT    3.25   3.24   12  255   19  53.8  55.2  996.6 32.4  1.025 -99.9 -99.99 -9.99
2019/10/17 23:06 EDT    3.25   3.20   17  254   22  54.0  55.2  996.6 32.4  1.025 -99.9 -99.99 -9.99
2019/10/17 23:12 EDT    3.24   3.24   15  263   21  54.0  55.2  996.7 32.4  1.025 -99.9 -99.99 -9.99
2019/10/17 23:18 EDT    3.23   3.15   19  259   22  53.8  55.2  996.8 32.4  1.025 -99.9 -99.99 -9.99
2019/10/17 23:24 EDT    3.21   3.22   14  265   23  54.0  54.3  997.0 32.0  1.025 -99.9 -99.99 -9.99
2019/10/17 23:30 EDT    3.19   3.12   13  263   20  54.0  54.7  997.2 32.1  1.025 -99.9 -99.99 -9.99
2019/10/17 23:36 EDT    3.16   3.11   15  261   18  54.0  54.9  997.2 32.1  1.025 -99.9 -99.99 -9.99
2019/10/17 23:42 EDT    3.13   3.17   15  271   20  53.8  54.5  997.4 31.9  1.025 -99.9 -99.99 -9.99
2019/10/17 23:48 EDT    3.09   3.05   15  267   20  53.8  54.9  997.4 32.1  1.025 -99.9 -99.99 -9.99
2019/10/17 23:54 EDT    3.04   3.08   14  265   18  54.0  54.7  997.5 32.0  1.025 -99.9 -99.99 -9.99
2019/10/18 00:00 EDT    2.99   3.05   13  268   17  53.8  54.7  997.6 32.0  1.025 -99.9 -99.99 -9.99
2019/10/18 00:06 EDT    2.94   2.96   13  272   20  53.8  54.5  997.7 32.0  1.025 -99.9 -99.99 -9.99
2019/10/18 00:12 EDT    2.88   2.98   14  270   19  53.8  54.9  997.7 32.2  1.025 -99.9 -99.99 -9.99
2019/10/18 00:18 EDT    2.82   2.88   14  275   18  53.8  54.5  997.7 32.1  1.025 -99.9 -99.99 -9.99
2019/10/18 00:24 EDT    2.75   2.84   12  269   17  53.6  54.3  997.8 31.9  1.025 -99.9 -99.99 -9.99
2019/10/18 00:30 EDT    2.68   2.78   12  269   20  53.8  54.3  997.9 31.9  1.025 -99.9 -99.99 -9.99
2019/10/18 00:36 EDT    2.61   2.71   12  279   17  53.8  54.7  998.0 32.2  1.025 -99.9 -99.99 -9.99
2019/10/18 00:42 EDT    2.53   2.66   14  277   17  53.6  54.5  998.1 32.0  1.025 -99.9 -99.99 -9.99
2019/10/18 00:48 EDT    2.45   2.58   14  276   23  53.8  54.5  998.2 32.1  1.025 -99.9 -99.99 -9.99
2019/10/18 00:54 EDT    2.37   2.56   13  271   17  53.6  54.7  998.3 32.1  1.025 -99.9 -99.99 -9.99
2019/10/18 01:00 EDT    2.29   2.36   13  271   17  53.6  54.3  998.3 31.8  1.025 -99.9 -99.99 -9.99
2019/10/18 01:06 EDT    2.20   2.23   11  266   16  53.8  54.3  998.4 31.8  1.025 -99.9 -99.99 -9.99
2019/10/18 01:12 EDT    2.11   2.25   12  247   15  53.2  54.5  998.6 31.8  1.025 -99.9 -99.99 -9.99
2019/10/18 01:18 EDT    2.02   2.09   12  250   14  53.1  54.3  998.6 31.9  1.025 -99.9 -99.99 -9.99
2019/10/18 01:24 EDT    1.93   2.00   10  258   14  52.7  54.1  998.7 31.8  1.025 -99.9 -99.99 -9.99
2019/10/18 01:30 EDT    1.84   1.89   10  260   11  52.3  54.1  998.7 31.7  1.025 -99.9 -99.99 -9.99
2019/10/18 01:36 EDT    1.75   1.79    9  273   12  52.7  54.0  998.8 31.8  1.025 -99.9 -99.99 -9.99
2019/10/18 01:42 EDT    1.65   1.74   12  273   15  52.9  54.0  998.9 31.7  1.025 -99.9 -99.99 -9.99
2019/10/18 01:48 EDT    1.56   1.61   11  274   17  52.9  54.1  999.0 31.7  1.025 -99.9 -99.99 -9.99
2019/10/18 01:54 EDT    1.47   1.53   11  275   15  53.1  54.1  999.2 31.7  1.025 -99.9 -99.99 -9.99
2019/10/18 02:00 EDT    1.38   1.44   14  278   20  53.2  54.1  999.2 31.8  1.025 -99.9 -99.99 -9.99
2019/10/18 02:06 EDT    1.29   1.31   14  277   18  53.4  54.7  999.3 32.2  1.025 -99.9 -99.99 -9.99
2019/10/18 02:12 EDT    1.20   1.21   10  270   16  53.2  54.3  999.5 31.7  1.025 -99.9 -99.99 -9.99
2019/10/18 02:18 EDT    1.11   1.04   12  260   14  53.1  54.3  999.5 32.0  1.025 -99.9 -99.99 -9.99
2019/10/18 02:24 EDT    1.03   1.04    9  265   14  53.1  54.1  999.6 31.8  1.025 -99.9 -99.99 -9.99
2019/10/18 02:30 EDT    0.95   0.97   14  283   19  53.1  54.3  999.5 32.0  1.025 -99.9 -99.99 -9.99
2019/10/18 02:36 EDT    0.87   0.86   16  274   19  53.1  54.7  999.4 32.0  1.025 -99.9 -99.99 -9.99
2019/10/18 02:42 EDT    0.79   0.81   16  279   23  53.1  54.5  999.6 31.9  1.025 -99.9 -99.99 -9.99
2019/10/18 02:48 EDT    0.72   0.72   13  274   17  53.1  54.7  999.8 32.1  1.025 -99.9 -99.99 -9.99
2019/10/18 02:54 EDT    0.65   0.67   13  282   18  53.1  54.7  999.9 32.1  1.025 -99.9 -99.99 -9.99
2019/10/18 03:00 EDT    0.59   0.69   14  276   19  53.1  54.9  999.8 32.1  1.025 -99.9 -99.99 -9.99
2019/10/18 03:06 EDT    0.53   0.55   12  277   17  52.9  54.9  999.9 32.1  1.025 -99.9 -99.99 -9.99
2019/10/18 03:12 EDT    0.47   0.44   14  284   17  52.9  54.9 1000.0 32.2  1.025 -99.9 -99.99 -9.99
2019/10/18 03:18 EDT    0.42   0.47   13  281   18  52.7  54.9 1000.0 32.2  1.025 -99.9 -99.99 -9.99
2019/10/18 03:24 EDT    0.38   0.44   12  291   16  52.7  54.9 1000.0 32.1  1.025 -99.9 -99.99 -9.99
2019/10/18 03:30 EDT    0.34   0.36   11  287   17  52.7  54.9 1000.1 32.2  1.025 -99.9 -99.99 -9.99
2019/10/18 03:36 EDT    0.30   0.41   12  282   16  52.7  54.9 1000.2 32.3  1.025 -99.9 -99.99 -9.99
2019/10/18 03:42 EDT    0.27   0.29   13  278   16  52.3  55.0 1000.1 32.2  1.025 -99.9 -99.99 -9.99
2019/10/18 03:48 EDT    0.25   0.33   14  279   18  52.3  54.9 1000.3 32.1  1.025 -99.9 -99.99 -9.99
2019/10/18 03:54 EDT    0.23   0.27   15  276   19  52.3  54.9 1000.3 32.1  1.025 -99.9 -99.99 -9.99
2019/10/18 04:00 EDT    0.21   0.25   11  282   17  52.5  55.0 1000.5 32.2  1.025 -99.9 -99.99 -9.99
2019/10/18 04:06 EDT    0.21   0.28   10  284   16  52.2  54.9 1000.6 32.2  1.025 -99.9 -99.99 -9.99
2019/10/18 04:12 EDT    0.20   0.25   10  283   15  52.2  55.0 1000.7 32.2  1.025 -99.9 -99.99 -9.99
2019/10/18 04:18 EDT    0.21   0.34    9  289   14  52.2  54.9 1000.6 32.2  1.025 -99.9 -99.99 -9.99
2019/10/18 04:24 EDT    0.21   0.34    7  293   12  52.0  55.0 1000.7 32.1  1.025 -99.9 -99.99 -9.99
2019/10/18 04:30 EDT    0.23   0.34    9  298   14  52.0  54.7 1000.7 31.9  1.025 -99.9 -99.99 -9.99
2019/10/18 04:36 EDT    0.24   0.42   11  288   13  52.0  54.5 1000.7 31.8  1.025 -99.9 -99.99 -9.99
2019/10/18 04:42 EDT    0.26   0.39   11  282   14  51.8  54.5 1000.8 32.0  1.025 -99.9 -99.99 -9.99
2019/10/18 04:48 EDT    0.29   0.46   11  284   16  51.8  54.3 1000.9 31.9  1.025 -99.9 -99.99 -9.99
2019/10/18 04:54 EDT    0.32   0.50   10  281   15  51.8  54.3 1001.1 31.9  1.025 -99.9 -99.99 -9.99
2019/10/18 05:00 EDT    0.35   0.49    9  281   15  51.6  54.3 1001.3 31.9  1.025 -99.9 -99.99 -9.99
2019/10/18 05:06 EDT    0.39   0.56   12  280   15  51.6  54.3 1001.4 31.9  1.025 -99.9 -99.99 -9.99
2019/10/18 05:12 EDT    0.43   0.64   11  276   17  51.4  54.1 1001.4 32.0  1.025 -99.9 -99.99 -9.99
2019/10/18 05:18 EDT    0.47   0.63   11  270   15  51.6  54.5 1001.5 32.1  1.025 -99.9 -99.99 -9.99
2019/10/18 05:24 EDT    0.52   0.62   10  271   15  51.4  54.3 1001.7 32.0  1.025 -99.9 -99.99 -9.99
2019/10/18 05:30 EDT    0.57   0.69   10  271   14  51.4  54.5 1001.8 32.1  1.025 -99.9 -99.99 -9.99
2019/10/18 05:36 EDT    0.62   0.73   11  282   14  51.4  54.7 1001.9 32.1  1.025 -99.9 -99.99 -9.99
2019/10/18 05:42 EDT    0.67   0.84   11  283   13  51.3  54.9 1002.1 32.1  1.025 -99.9 -99.99 -9.99
2019/10/18 05:48 EDT    0.72   0.89   11  274   14  51.1  54.9 1002.2 32.1  1.025 -99.9 -99.99 -9.99
2019/10/18 05:54 EDT    0.78   0.93   11  276   15  51.3  54.7 1002.3 32.2  1.025 -99.9 -99.99 -9.99
2019/10/18 06:00 EDT    0.83   0.99   11  276   15  51.1  54.7 1002.3 32.2  1.025 -99.9 -99.99 -9.99
2019/10/18 06:06 EDT    0.89   0.99   11  268   14  51.1  54.7 1002.4 32.1  1.025 -99.9 -99.99 -9.99
2019/10/18 06:12 EDT    0.95   1.10   12  273   16  51.1  54.7 1002.6 32.2  1.025 -99.9 -99.99 -9.99
2019/10/18 06:18 EDT    1.00   1.12   11  272   16  51.1  54.7 1002.7 32.2  1.025 -99.9 -99.99 -9.99
2019/10/18 06:24 EDT    1.06   1.24   11  273   15  51.1  54.9 1002.8 32.3  1.025 -99.9 -99.99 -9.99
2019/10/18 06:30 EDT    1.12   1.28   13  272   17  51.1  54.9 1003.0 32.1  1.025 -99.9 -99.99 -9.99
2019/10/18 06:36 EDT    1.18   1.36   12  269   15  50.9  54.9 1003.1 32.1  1.025 -99.9 -99.99 -9.99
2019/10/18 06:42 EDT    1.24   1.47   11  262   14  51.1  54.9 1003.2 32.2  1.025 -99.9 -99.99 -9.99
2019/10/18 06:48 EDT    1.30   1.44   12  265   15  50.9  54.9 1003.3 32.2  1.025 -99.9 -99.99 -9.99
2019/10/18 06:54 EDT    1.36   1.51   11  265   14  50.9  54.9 1003.4 32.2  1.025 -99.9 -99.99 -9.99
2019/10/18 07:00 EDT    1.42   1.61   11  262   15  50.9  55.0 1003.4 32.2  1.025 -99.9 -99.99 -9.99
2019/10/18 07:06 EDT    1.49   1.61   12  268   15  50.7  55.0 1003.5 32.3  1.025 -99.9 -99.99 -9.99
2019/10/18 07:12 EDT    1.55   1.69   12  269   15  50.5  54.9 1003.6 32.4  1.025 -99.9 -99.99 -9.99
2019/10/18 07:18 EDT    1.61   1.81   11  265   16  50.9  54.9 1003.8 32.4  1.025 -99.9 -99.99 -9.99
2019/10/18 07:24 EDT    1.67   1.84   13  266   16  50.7  54.7 1003.8 32.4  1.025 -99.9 -99.99 -9.99
2019/10/18 07:30 EDT    1.74   1.94   12  270   15  50.7  54.7 1004.1 32.4  1.025 -99.9 -99.99 -9.99
2019/10/18 07:36 EDT    1.80   2.00   11  268   14  50.9  54.7 1004.2 32.3  1.025 -99.9 -99.99 -9.99
2019/10/18 07:42 EDT    1.86   2.07   13  266   15  50.5  54.5 1004.3 32.4  1.025 -99.9 -99.99 -9.99
2019/10/18 07:48 EDT    1.93   2.15   12  270   15  50.7  54.5 1004.5 32.3  1.025 -99.9 -99.99 -9.99
2019/10/18 07:54 EDT    2.00   2.22   11  267   15  50.9  54.5 1004.6 32.4  1.025 -99.9 -99.99 -9.99
2019/10/18 08:00 EDT    2.06   2.31   13  272   15  50.9  54.5 1004.7 32.4  1.025 -99.9 -99.99 -9.99
2019/10/18 08:06 EDT    2.13   2.36   13  273   18  51.1  54.5 1004.8 32.4  1.025 -99.9 -99.99 -9.99
2019/10/18 08:12 EDT    2.20   2.48   11  271   16  51.3  54.5 1005.0 32.4  1.025 -99.9 -99.99 -9.99
2019/10/18 08:18 EDT    2.26   2.53   12  269   17  51.1  54.5 1005.1 32.4  1.025 -99.9 -99.99 -9.99
2019/10/18 08:24 EDT    2.33   2.56   12  268   17  51.4  54.5 1005.2 32.3  1.025 -99.9 -99.99 -9.99
2019/10/18 08:30 EDT    2.40   2.68   13  276   20  51.3  54.5 1005.3 32.4  1.025 -99.9 -99.99 -9.99
2019/10/18 08:36 EDT    2.47   2.72   14  271   18  51.4  54.5 1005.3 32.4  1.025 -99.9 -99.99 -9.99
2019/10/18 08:42 EDT    2.53   2.84   14  275   16  51.6  54.7 1005.3 32.3  1.025 -99.9 -99.99 -9.99
2019/10/18 08:48 EDT    2.60   2.90   13  283   17  51.8  54.5 1005.5 32.4  1.025 -99.9 -99.99 -9.99
2019/10/18 08:54 EDT    2.67   2.96   14  282   19  52.0  54.7 1005.4 32.4  1.025 -99.9 -99.99 -9.99
2019/10/18 09:00 EDT    2.74   3.11   14  277   18  52.0  54.7 1005.5 32.4  1.025 -99.9 -99.99 -9.99
2019/10/18 09:06 EDT    2.81   3.11   14  284   18  52.2  54.7 1005.6 32.4  1.025 -99.9 -99.99 -9.99
2019/10/18 09:12 EDT    2.87   3.21   16  278   18  52.5  54.7 1005.7 32.5  1.025 -99.9 -99.99 -9.99
2019/10/18 09:18 EDT    2.94   3.27   14  286   21  52.7  54.7 1005.8 32.4  1.025 -99.9 -99.99 -9.99
2019/10/18 09:24 EDT    3.00   3.28   12  287   16  52.7  54.7 1005.9 32.4  1.025 -99.9 -99.99 -9.99
2019/10/18 09:30 EDT    3.06   3.41   15  273   17  52.7  54.7 1005.8 32.4  1.025 -99.9 -99.99 -9.99
2019/10/18 09:36 EDT    3.13   3.47   15  289   20  52.9  54.7 1006.0 32.4  1.025 -99.9 -99.99 -9.99
2019/10/18 09:42 EDT    3.19   3.54   11  293   17  53.4  54.7 1006.1 32.5  1.025 -99.9 -99.99 -9.99
2019/10/18 09:48 EDT    3.24   3.67   13  306   17  53.8  54.7 1006.1 32.5  1.025 -99.9 -99.99 -9.99
2019/10/18 09:54 EDT    3.30   3.66   13  312   21  53.4  54.9 1006.2 32.4  1.025 -99.9 -99.99 -9.99
2019/10/18 10:00 EDT    3.35   3.73   12  305   17  53.2  54.9 1006.3 32.6  1.026 -99.9 -99.99 -9.99
2019/10/18 10:06 EDT    3.40   3.77   14  307   18  53.1  54.9 1006.3 32.7  1.026 -99.9 -99.99 -9.99
2019/10/18 10:12 EDT    3.45   3.75   12  303   19  53.2  54.7 1006.4 32.7  1.026 -99.9 -99.99 -9.99
2019/10/18 10:18 EDT    3.49   3.85   12  316   17  53.1  54.7 1006.5 32.7  1.026 -99.9 -99.99 -9.99
2019/10/18 10:24 EDT    3.53   3.88   10  315   15  53.4  54.7 1006.5 32.7  1.026 -99.9 -99.99 -9.99
2019/10/18 10:30 EDT    3.57   3.94   10  302   19  53.4  54.9 1006.5 32.6  1.026 -99.9 -99.99 -9.99
2019/10/18 10:36 EDT    3.60   4.02   10  312   16  54.0  54.7 1006.7 32.7  1.026 -99.9 -99.99 -9.99
2019/10/18 10:42 EDT    3.63   4.02   11  309   16  53.8  54.7 1006.7 32.7  1.026 -99.9 -99.99 -9.99
2019/10/18 10:48 EDT    3.65   4.07   15  318   19  53.6  54.7 1006.7 32.7  1.026 -99.9 -99.99 -9.99
2019/10/18 10:54 EDT    3.67   4.09   12  309   19  53.4  54.7 1006.7 32.7  1.026 -99.9 -99.99 -9.99
2019/10/18 11:00 EDT    3.69   4.03   13  309   16  54.0  54.7 1006.8 32.7  1.026 -99.9 -99.99 -9.99
2019/10/18 11:06 EDT    3.70   4.08   13  312   19  54.0  54.9 1006.8 32.6  1.026 -99.9 -99.99 -9.99
2019/10/18 11:12 EDT    3.70   4.09   12  305   17  54.0  53.8 1006.9 32.1  1.025 -99.9 -99.99 -9.99
2019/10/18 11:18 EDT    3.70   4.11   13  310   17  54.0  54.3 1006.9 32.5  1.025 -99.9 -99.99 -9.99
2019/10/18 11:24 EDT    3.70   4.14   11  306   19  54.0  54.5 1006.9 32.6  1.026 -99.9 -99.99 -9.99
2019/10/18 11:30 EDT    3.69   4.12   13  310   17  54.1  54.7 1006.9 32.6  1.026 -99.9 -99.99 -9.99
2019/10/18 11:36 EDT    3.67   4.13   12  313   17  54.3  54.7 1007.0 32.7  1.026 -99.9 -99.99 -9.99
2019/10/18 11:42 EDT    3.65   4.08   11  307   18  54.1  54.7 1006.9 32.7  1.026 -99.9 -99.99 -9.99
2019/10/18 11:48 EDT    3.62   4.07   10  329   16  54.5  54.7 1007.0 32.6  1.026 -99.9 -99.99 -9.99
2019/10/18 11:54 EDT    3.59   4.09   10  316   15  54.7  54.7 1007.0 32.5  1.025 -99.9 -99.99 -9.99
2019/10/18 12:00 EDT    3.56   4.00   12  311   14  54.5  54.7 1007.0 32.5  1.025 -99.9 -99.99 -9.99
2019/10/18 12:06 EDT    3.52   3.98   10  318   17  55.2  54.1 1007.0 32.1  1.025 -99.9 -99.99 -9.99
2019/10/18 12:12 EDT    3.47   3.96   12  314   17  54.9  54.0 1007.1 32.1  1.025 -99.9 -99.99 -9.99
2019/10/18 12:18 EDT    3.42   3.90   12  309   16  54.9  54.0 1007.0 32.0  1.025 -99.9 -99.99 -9.99
2019/10/18 12:24 EDT    3.37   3.83   13  309   16  55.4  54.0 1006.9 32.1  1.025 -99.9 -99.99 -9.99
2019/10/18 12:30 EDT    3.31   3.78    9  321   16  55.8  54.1 1006.9 32.0  1.025 -99.9 -99.99 -9.99
2019/10/18 12:36 EDT    3.25   3.69   10  318   14  55.8  54.0 1006.8 32.1  1.025 -99.9 -99.99 -9.99
2019/10/18 12:42 EDT    3.18   3.62   11  310   17  55.6  54.0 1006.7 32.1  1.025 -99.9 -99.99 -9.99
2019/10/18 12:48 EDT    3.11   3.60    9  301   14  55.9  53.8 1006.8 32.1  1.025 -99.9 -99.99 -9.99
2019/10/18 12:54 EDT    3.04   3.51   10  309   14  55.8  54.0 1006.8 32.1  1.025 -99.9 -99.99 -9.99
2019/10/18 13:00 EDT    2.96   3.47    9  309   13  56.1  54.0 1006.8 32.0  1.025 -99.9 -99.99 -9.99
2019/10/18 13:06 EDT    2.89   3.36   12  313   16  56.1  54.0 1006.8 32.1  1.025 -99.9 -99.99 -9.99
2019/10/18 13:12 EDT    2.81   3.25    9  317   16  56.5  54.0 1006.8 32.1  1.025 -99.9 -99.99 -9.99
2019/10/18 13:18 EDT    2.72   3.18    8  312   11  56.7  54.0 1006.7 32.3  1.025 -99.9 -99.99 -9.99
2019/10/18 13:24 EDT    2.64   3.08    7  341   12  56.7  54.0 1006.8 32.1  1.025 -99.9 -99.99 -9.99
2019/10/18 13:30 EDT    2.55   3.00    7  344   12  56.7  53.8 1006.8 32.2  1.025 -99.9 -99.99 -9.99
2019/10/18 13:36 EDT    2.46   2.91   10  337   12  57.0  54.0 1006.8 32.3  1.025 -99.9 -99.99 -9.99
2019/10/18 13:42 EDT    2.37   2.83    7  323   13  57.7  54.0 1006.8 32.2  1.025 -99.9 -99.99 -9.99
2019/10/18 13:48 EDT    2.28   2.72    9  327   17  57.4  54.0 1006.8 32.3  1.025 -99.9 -99.99 -9.99
2019/10/18 13:54 EDT    2.19   2.64    8  317   15  57.4  54.0 1006.8 32.2  1.025 -99.9 -99.99 -9.99
2019/10/18 14:00 EDT    2.10   2.54    9  320   13  57.4  53.8 1006.8 32.2  1.025 -99.9 -99.99 -9.99
2019/10/18 14:06 EDT    2.01   2.43    9  313   12  58.1  53.8 1007.0 32.2  1.025 -99.9 -99.99 -9.99
2019/10/18 14:12 EDT    1.92   2.31    9  308   14  57.9  53.8 1007.1 32.1  1.025 -99.9 -99.99 -9.99
2019/10/18 14:18 EDT    1.83   2.23   10  313   15  58.1  54.0 1007.1 32.1  1.025 -99.9 -99.99 -9.99
2019/10/18 14:24 EDT    1.74   2.14   12  344   14  58.1  54.0 1007.2 32.0  1.025 -99.9 -99.99 -9.99
2019/10/18 14:30 EDT    1.65   2.07    9  320   14  57.9  53.8 1007.1 32.0  1.025 -99.9 -99.99 -9.99
2019/10/18 14:36 EDT    1.56   1.99    9  314   12  58.3  54.0 1007.0 32.0  1.025 -99.9 -99.99 -9.99
2019/10/18 14:42 EDT    1.48   1.89    7  334   14  58.6  53.8 1007.0 32.1  1.025 -99.9 -99.99 -9.99
2019/10/18 14:48 EDT    1.39 -99.99 -999 -999 -999 -99.9 -99.9 -999.9 -9.9 -9.999 -99.9 -99.99 -9.99
2019/10/18 14:54 EDT    1.31 -99.99 -999 -999 -999 -99.9 -99.9 -999.9 -9.9 -9.999 -99.9 -99.99 -9.99
2019/10/18 15:00 EDT    1.23 -99.99 -999 -999 -999 -99.9 -99.9 -999.9 -9.9 -9.999 -99.9 -99.99 -9.99